× Your query returned 2954 results.
 NamePackageVersion CodeVirus DetectionsAdded
  Kwik DMAP player.efis.mfd 1 0 2017-10-13 20:16:10
  Kwik DataPac (eur.rus) player.efis.data.eur.rus 3 0 2017-10-13 20:16:06
  WALLΞTH org.walleth 20 0 2017-10-13 20:16:05
  Dziennik com.wabadaba.dziennik 6 0 2017-10-13 20:16:04
  DroidShows nl.asymmetrics.droidshows 771 0 2017-10-13 20:16:04
  Diary org.billthefarmer.diary 117 0 2017-10-13 20:16:04
  ShoLi name.soulayrol.rhaa.sholi 8 0 2017-10-13 20:16:04
  SpiritF fm.a2d.sf 111 0 2017-10-13 20:16:04
  PlusMinusTimesDivide eu.lavarde.pmtd 2014110820 0 2017-10-13 20:16:04
  Auto-Away com.teamdc.stephendiniz.autoaway 24 0 2017-10-13 20:16:03
  SELinuxModeChanger com.mrbimc.selinux 20170724 0 2017-10-13 20:16:03
  Network de.mangelow.network 4 0 2017-10-13 20:16:03
  BiglyBT com.biglybt.android.client 9 0 2017-10-13 20:16:02
  arXiv mobile com.commonsware.android.arXiv 112 0 2017-10-13 20:16:02
  Apple Flinger com.gitlab.ardash.appleflinger.android 21 0 2017-10-13 20:16:02
  Hash Droid com.hobbyone.HashDroid 20 0 2017-10-13 20:16:02
  Yalp Store com.github.yeriomin.yalpstore 28 0 2017-10-13 20:16:02
  Freifunk Auto Connect com.example.tobiastrumm.freifunkautoconn.. 10 0 2017-10-13 20:16:01
  Metronome com.arnaud.metronome 5 0 2017-10-13 20:16:01
  Easer ryey.easer 34 0 2017-10-11 09:38:12
  WALLΞTH org.walleth 18 0 2017-10-11 09:38:11
  Xposed Downloader org.xposeddownloader 12 0 2017-10-11 09:38:11
  AsteroidOS Sync org.asteroidos.sync 6 0 2017-10-11 09:38:10
  ooniprobe org.openobservatory.ooniprobe 17 0 2017-10-11 09:38:10
  Tasks org.tasks 471 0 2017-10-11 09:38:10
  Enchanted Fortress hr.kravarscan.enchantedfortress 8 0 2017-10-11 09:38:09
  Notes it.niedermann.owncloud.notes 17 0 2017-10-11 09:38:09
  Car Report me.kuehle.carreport 62 0 2017-10-11 09:38:09
  Twidere org.mariotaku.twidere 393 0 2017-10-11 09:38:09
  Twidere org.mariotaku.twidere 394 0 2017-10-11 09:38:09
  TRIfA com.zoffcc.applications.trifa 10009 0 2017-10-11 09:38:08
  Easy xkcd de.tap.easy_xkcd 140 0 2017-10-11 09:38:08
  SnoopSnitch de.srlabs.snoopsnitch 16 0 2017-10-11 09:38:08
  Unpopular Music Player de.kromke.andreas.unpopmusicplayerfree 12 0 2017-10-11 09:38:08
  Mastalab fr.gouv.etalab.mastodon 60 0 2017-10-11 09:38:08
  Calendar com.simplemobiletools.calendar 96 0 2017-10-11 09:38:06
  Dziennik com.wabadaba.dziennik 5 0 2017-10-11 09:38:06
  Mysplash com.wangdaye.mysplash 321 0 2017-10-11 09:38:06
  Vanilla Cover Fetcher com.kanedias.vanilla.coverfetch 6 0 2017-10-11 09:38:05
  Red Moon com.jmstudios.redmoon 36 0 2017-10-11 09:38:05
  Nextcloud com.nextcloud.client 20000009 0 2017-10-11 09:38:05
  NewsBlur com.newsblur 145 0 2017-10-11 09:38:05
  ownCloud com.owncloud.android 20500000 0 2017-10-11 09:38:05
  Stocks Widget com.github.premnirmal.tickerwidget 220 0 2017-10-11 09:38:04
  Torrent Client com.github.axet.torrentclient 481 0 2017-10-11 09:38:04
  Apple Flinger com.gitlab.ardash.appleflinger.android 20 0 2017-10-11 09:38:04
  Taskbar com.farmerbb.taskbar 169 0 2017-10-11 09:38:03
  MTG Familiar com.gelakinetic.mtgfam 49 0 2017-10-11 09:38:03
  TrebleShot com.genonbeta.TrebleShot 46 0 2017-10-11 09:38:03
  Delta Chat com.b44t.messenger 443 0 2017-10-11 09:38:02
  Simple Bitcoin Widget com.brentpanther.bitcoinwidget 121 0 2017-10-11 09:38:02
  CityZen com.cityzen.cityzen 1 0 2017-10-11 09:38:02
  Simple Ethereum Widget com.brentpanther.ethereumwidget 21 0 2017-10-11 09:38:02
  BRouter btools.routingapp 21 0 2017-10-11 09:38:02
  Simple Litecoin Widget com.brentpanther.litecoinwidget 11 0 2017-10-11 09:38:02
  Simple Bitcoin Cash Widget com.brentpanther.bitcoincashwidget 11 0 2017-10-11 09:38:02
  Apk Extractor axp.tool.apkextractor 2 0 2017-10-11 09:38:01
  la/u/ncher us.dangeru.la_u_ncher413 414 0 2017-10-08 16:39:39
  Emerald Launcher ru.henridellal.emerald 16 0 2017-10-08 16:39:38
  Easer ryey.easer 33 0 2017-10-08 16:39:38
  Moscow Wi-Fi autologin pw.thedrhax.mosmetro 65 0 2017-10-08 16:39:37
  AndIodine org.xapek.andiodine 3 0 2017-10-08 16:39:34
  Kwik EFIS player.efis.pfd 15 0 2017-10-08 16:39:33
  Silence org.smssecure.smssecure 203 0 2017-10-08 16:39:32
  Tasks org.tasks 475 0 2017-10-08 16:39:31
  Tasks org.tasks 470 0 2017-10-08 16:39:31
  AFH Downloader org.afhdownloader 9 0 2017-10-08 16:39:30
  DroidShows nl.asymmetrics.droidshows 770 0 2017-10-08 16:39:30
  Altcoin Prices eu.uwot.fabio.altcoinprices 3 0 2017-10-08 16:39:30
  Silence org.smssecure.smssecure 137 0 2017-10-08 16:39:30
  F-Droid org.fdroid.fdroid 1000005 0 2017-10-08 16:39:30
  Editor org.billthefarmer.editor 107 0 2017-10-08 16:39:30
  OpenManga org.nv95.openmanga 1116 0 2017-10-08 16:39:30
  Street­Complete de.westnordost.streetcomplete 201 0 2017-10-08 16:39:29
  Markor net.gsantner.markor 5 0 2017-10-08 16:39:29
  Gadgetbridge nodomain.freeyourgadget.gadgetbridge 106 0 2017-10-08 16:39:29
  Mastalab fr.gouv.etalab.mastodon 58 0 2017-10-08 16:39:29
  Apple Flinger com.gitlab.ardash.appleflinger.android 19 0 2017-10-08 16:39:28
  Andor's Trail com.gpl.rpg.AndorsTrail 42 0 2017-10-08 16:39:28
  Number Guesser com.numguesser.tonio_rpchp.numberguesser 5 0 2017-10-08 16:39:28
  Vespucci (F-Droid) de.blau.android 204 0 2017-10-08 16:39:28
  Nextcloud com.nextcloud.client 20000008 0 2017-10-08 16:39:28
  microMathematics Plus com.mkulesh.micromath.plus 302 0 2017-10-08 16:39:28
  Gallery com.simplemobiletools.gallery 135 0 2017-10-08 16:39:28
  Calendar Notifications com.github.quarck.calnotify 4340 0 2017-10-08 16:39:26
  Torrent Client com.github.axet.torrentclient 480 0 2017-10-08 16:39:26
  Yalp Store com.github.yeriomin.yalpstore 27 0 2017-10-08 16:39:26
  Caramelos com.dfzlv.gjjlt.caramelos 7 0 2017-10-08 16:39:26
  ToneGenerator.class com.github.axet.tonegenerator 15 0 2017-10-08 16:39:26
  Media Merger com.github.axet.mover 96 0 2017-10-08 16:39:26
  Anuto TD ch.logixisland.anuto 15 0 2017-10-08 16:39:25
  Birthday Calendar saschpe.contactevents 160176 0 2017-10-04 00:14:00
  Moscow Wi-Fi autologin pw.thedrhax.mosmetro 64 0 2017-10-04 00:14:00
  RoMote wseemann.media.romote 8 0 2017-10-04 00:14:00
  Tux Paint org.tuxpaint 10 0 2017-10-04 00:13:57
  Fennec F-Droid org.mozilla.fennec_fdroid 560020 1 2017-10-04 00:13:53
  Fennec F-Droid org.mozilla.fennec_fdroid 560010 1 2017-10-04 00:13:49
  Bimba ml.adamsprogs.bimba 5 0 2017-10-04 00:13:48
  F-Droid org.fdroid.fdroid 1000004 0 2017-10-04 00:13:48
  Diary org.billthefarmer.diary 116 0 2017-10-04 00:13:48
  Habits org.isoron.uhabits 35 0 2017-10-04 00:13:48
  pysolfc org.lufebe16.pysolfc 8 0 2017-10-04 00:13:48
  SyncPlayer io.github.powerinside.syncplay 18 0 2017-10-04 00:13:47
  Gallery com.simplemobiletools.gallery 134 0 2017-10-04 00:13:46
  WiFi Automatic de.j4velin.wifiAutoOff 175 0 2017-10-04 00:13:46
  Mastalab fr.gouv.etalab.mastodon 56 0 2017-10-04 00:13:46
  PasseGares fr.nocle.passegares 152 0 2017-10-04 00:13:46
  TransektCount com.wmstein.transektcount 210 0 2017-10-04 00:13:46
  Froody io.github.froodyapp 30 0 2017-10-04 00:13:46
  Vanilla Tag Editor com.kanedias.vanilla.audiotag 12 0 2017-10-04 00:13:45
  TourCount com.wmstein.tourcount 230 0 2017-10-04 00:13:45
  Nextcloud dev com.nextcloud.android.beta 20170930 0 2017-10-04 00:13:45
  GreenBits (testnet) com.greenaddress.greenbits_android_walle.. 202 0 2017-10-04 00:13:44
  openScale com.health.openscale 18 0 2017-10-04 00:13:44
  Simple Litecoin Widget com.brentpanther.litecoinwidget 10 0 2017-10-04 00:13:43
  OctoDroid com.gh4a 55 0 2017-10-04 00:13:43
  Simple Ethereum Widget com.brentpanther.ethereumwidget 20 0 2017-10-04 00:13:42
  Poet Assistant ca.rmen.android.poetassistant 112100 0 2017-10-04 00:13:42
  Simple Bitcoin Cash Widget com.brentpanther.bitcoincashwidget 10 0 2017-10-04 00:13:42
  French Calendar ca.rmen.android.frenchcalendar 1180 0 2017-10-04 00:13:42
  Simple Bitcoin Widget com.brentpanther.bitcoinwidget 120 0 2017-10-04 00:13:42
  Mi Manga Nu ar.rulosoft.mimanganu 69 0 2017-10-04 00:13:42
  Vanilla Music ch.blinkenlights.android.vanilla 10560 0 2017-10-04 00:13:42
  Wrong PIN Shutdown org.nuntius35.wrongpinshutdown 3 0 2017-10-01 13:36:48
  andOTP org.shadowice.flocke.andotp 9 0 2017-10-01 13:36:48
  Budget Watch protect.budgetwatch 18 0 2017-10-01 13:36:48
  Calendar Import-Export org.sufficientlysecure.ical 57 0 2017-10-01 13:36:48
  Loyalty Card Keychain protect.card_locker 15 0 2017-10-01 13:36:48
  Kore org.xbmc.kore 18 0 2017-10-01 13:36:48
  Kore org.xbmc.kore 17 0 2017-10-01 13:36:47
  Kore org.xbmc.kore 16 0 2017-10-01 13:36:47
  Kontalk org.kontalk 248 0 2017-10-01 13:36:43
  Fennec F-Droid org.mozilla.fennec_fdroid 560000 0 2017-10-01 13:36:43
  AndStatus org.andstatus.app 232 0 2017-10-01 13:36:42
  Gadgetbridge nodomain.freeyourgadget.gadgetbridge 104 0 2017-10-01 13:36:42
  Car Report me.kuehle.carreport 61 0 2017-10-01 13:36:42
  sg net.mabako.steamgifts 1005509 0 2017-10-01 13:36:42
  DroidShows nl.asymmetrics.droidshows 762 0 2017-10-01 13:36:42
  Face Slim org.indywidualni.fblite 51 0 2017-10-01 13:36:42
  FBReader org.geometerplus.zlibrary.ui.android 2050920 0 2017-10-01 13:36:42
  OSMBugs org.gittner.osmbugs 27 0 2017-10-01 13:36:42
  Kontalk org.kontalk 246 0 2017-10-01 13:36:42
  Trans ir.hsn6.trans 4 0 2017-10-01 13:36:41
  Slide me.ccrama.redditslide 285 0 2017-10-01 13:36:41
  AndrOBD com.fr3ts0n.ecu.gui.androbd 10502 0 2017-10-01 13:36:40
  Red Moon com.jmstudios.redmoon 34 0 2017-10-01 13:36:40
  MGit com.manichord.mgit 204 0 2017-10-01 13:36:40
  Simple Brick Games de.tobiasbielefeld.brickgames 18 0 2017-10-01 13:36:40
  Bitcoin Wallet [testnet3] de.schildbach.wallet_test 317 0 2017-10-01 13:36:40
  NextINpact (Unofficial) com.pcinpact 226 0 2017-10-01 13:36:40
  MemeTastic io.github.gsantner.memetastic 37 0 2017-10-01 13:36:40
  Bitcoin Wallet de.schildbach.wallet 317 0 2017-10-01 13:36:40
  Orgzly com.orgzly 78 0 2017-10-01 13:36:40
  Conversations eu.siacs.conversations 236 0 2017-10-01 13:36:40
  Screenshot sharer com.tomer.screenshotsharer 6 0 2017-10-01 13:36:40
  LibreNews app.librenews.io.librenews 5 0 2017-10-01 13:36:39
  Torrent Client com.github.axet.torrentclient 476 0 2017-10-01 13:36:39
  EteSync com.etesync.syncadapter 16 0 2017-10-01 13:36:39
  Mi Manga Nu ar.rulosoft.mimanganu 68 0 2017-10-01 13:36:39
  Nock Nock (BETA) com.afollestad.nocknock 13 0 2017-10-01 13:36:39
  LabCoat com.commit451.gitlab 2041200 0 2017-10-01 13:36:39
  Audio Recorder com.github.axet.audiorecorder 208 2 2017-10-01 13:36:39
  Traccar Client org.traccar.client 42 0 2017-09-27 11:15:14
  WhereAreTheEyes org.daylightingsociety.wherearetheeyes 6 0 2017-09-27 11:15:13
  WiFi Location Service org.fitchfamily.android.wifi_backend 39 0 2017-09-27 11:15:13
  GSM Location Service org.fitchfamily.android.gsmlocation 64 0 2017-09-27 11:15:13
  OpenKeychain org.sufficientlysecure.keychain 47001 0 2017-09-27 11:15:13
  Face Slim org.indywidualni.fblite 50 0 2017-09-27 11:15:13
  Wrong Pin Shutdown org.nuntius35.wrongpinshutdown 1 0 2017-09-27 11:15:13
  Firefox Klar org.mozilla.klar 11 0 2017-09-27 11:15:13
  Bitcoin Wallet [testnet3] de.schildbach.wallet_test 308 0 2017-09-27 11:15:12
  Simple Brick Games de.tobiasbielefeld.brickgames 17 0 2017-09-27 11:15:12
  Diary org.billthefarmer.diary 115 0 2017-09-27 11:15:12
  LinCal felixwiemuth.lincal 12 0 2017-09-27 11:15:12
  Tuner org.billthefarmer.tuner 117 0 2017-09-27 11:15:12
  Markor net.gsantner.markor 4 0 2017-09-27 11:15:12
  Syncopoli org.amoradi.syncopoli 10 0 2017-09-27 11:15:12
  Slide me.ccrama.redditslide 284 0 2017-09-27 11:15:12
  Gadgetbridge nodomain.freeyourgadget.gadgetbridge 103 0 2017-09-27 11:15:12
  Car Report me.kuehle.carreport 60 0 2017-09-27 11:15:12
  OCReader email.schaal.ocreader 41 0 2017-09-27 11:15:11
  Street­Complete de.westnordost.streetcomplete 200 0 2017-09-27 11:15:11
  Quick Draw Everywhere com.tomer.draw 100 0 2017-09-27 11:15:10
  Unpopular Music Player de.kromke.andreas.unpopmusicplayerfree 11 0 2017-09-27 11:15:10
  Kimai de.live.gdev.timetracker 23 0 2017-09-27 11:15:10
  DBZ Battery Widget com.tomer.dbz.widget 5 0 2017-09-27 11:15:09
  Calendar com.simplemobiletools.calendar 94 0 2017-09-27 11:15:08
  Calendar Notifications com.github.quarck.calnotify 4330 0 2017-09-27 11:15:08
  Camera com.simplemobiletools.camera 45 0 2017-09-27 11:15:08
  Booky McBookface com.quaap.bookymcbookface 21 0 2017-09-27 11:15:08
  Cythara com.github.cythara 5 0 2017-09-27 11:15:08
  Seafile com.seafile.seadroid2 71 0 2017-09-27 11:15:08
  Notes com.simplemobiletools.notes 38 0 2017-09-27 11:15:08
  dandelion* com.github.dfa.diaspora_android 26 0 2017-09-27 11:15:07
  Nextcloud dev com.nextcloud.android.beta 20170926 0 2017-09-27 11:15:07
  Nextcloud dev com.nextcloud.android.beta 20170921 0 2017-09-27 11:15:07
  AndrOBD com.fr3ts0n.ecu.gui.androbd 10501 0 2017-09-27 11:15:06
  Hourly Reminder com.github.axet.hourlyreminder 320 0 2017-09-27 11:15:06
  OpenLauncher com.benny.openlauncher 27 0 2017-09-27 11:15:06
  DAVdroid at.bitfire.davdroid 172 0 2017-09-27 11:15:06
  Easer ryey.easer 31 0 2017-09-24 10:36:18
  Init.d Light x1125io.initdlight 1 0 2017-09-24 10:36:18
  VocableTrainer Beta vocabletrainer.heinecke.aron.vocabletrai.. 8 0 2017-09-24 10:36:18
  Kwik EFIS player.efis.pfd 14 0 2017-09-24 10:36:14
  Ameixa Monochrome org.xphnx.ameixamonochrome 46 0 2017-09-24 10:36:10
  Kwik DataPac (sah.jap) player.efis.data.sah.jap 3 0 2017-09-24 10:36:10
  Traccar Client org.traccar.client 41 0 2017-09-24 10:36:09
  Nextcloud Bookmarks org.schabi.nxbookmarks 3 0 2017-09-24 10:36:09
  Defendo ir.hsn6.defendo 7 0 2017-09-24 10:36:08
  μlogger net.fabiszewski.ulogger 107 0 2017-09-24 10:36:08
  DNS66 org.jak_linux.dns66 17 0 2017-09-24 10:36:08
  AFH Downloader org.afhdownloader 8 0 2017-09-24 10:36:08
  Shorty org.billthefarmer.shorty 108 0 2017-09-24 10:36:08
  Slide me.ccrama.redditslide 282 0 2017-09-24 10:36:08
  F-Droid Privileged Extension org.fdroid.fdroid.privileged 2070 0 2017-09-24 10:36:08
  Editor org.billthefarmer.editor 106 0 2017-09-24 10:36:08
  FilmChecker me.murks.filmchecker 3 0 2017-09-24 10:36:08
  Phone Saver link.standen.michael.phonesaver 22 0 2017-09-24 10:36:08
  TeaCup net.chilon.matt.teacup 8 0 2017-09-24 10:36:08
  WiFi Location Service org.fitchfamily.android.wifi_backend 38 0 2017-09-24 10:36:08
  PassAndroid org.ligi.passandroid 343 0 2017-09-24 10:36:08
  NewPipe org.schabi.newpipe 38 0 2017-09-24 10:36:08
  Home Assistant io.homeassistant.android 4 0 2017-09-24 10:36:07
  Stringlate io.github.lonamiwebs.stringlate 1001 0 2017-09-24 10:36:07
  Altcoin Prices eu.uwot.fabio.altcoinprices 2 0 2017-09-24 10:36:06
  Froody io.github.froodyapp 29 0 2017-09-24 10:36:06
  MemeTastic io.github.gsantner.memetastic 35 0 2017-09-24 10:36:06
  Altcoin Prices eu.uwot.fabio.altcoinprices 1 0 2017-09-24 10:36:04
  Street­Complete de.westnordost.streetcomplete 104 0 2017-09-24 10:36:04
  Simple Solitaire Collection de.tobiasbielefeld.solitaire 56 0 2017-09-24 10:36:03
  Cherry de.live.gdev.cherrymusic 13 0 2017-09-24 10:36:02
  Bitcoin Wallet [testnet3] de.schildbach.wallet_test 311 0 2017-09-24 10:36:02
  Bitcoin Wallet de.schildbach.wallet 308 0 2017-09-24 10:36:02
  SecScanQR de.t_dankworth.secscanqr 3 0 2017-09-24 10:36:02
  Bitcoin Wallet de.schildbach.wallet 311 0 2017-09-24 10:36:02
  Location Map Viewer de.k3b.android.locationMapViewer 6 0 2017-09-24 10:36:01
  Quick Draw Everywhere com.tomer.draw 51 0 2017-09-24 10:36:01
  WiFiAnalyzer com.vrem.wifianalyzer 32 0 2017-09-24 10:36:01
  Dragon Battery Widget com.tomer.dbz.widget 4 0 2017-09-24 10:36:00
  Termux:Task com.termux.tasker 2 0 2017-09-24 10:35:59
  Camera com.simplemobiletools.camera 44 0 2017-09-24 10:35:58
  Gallery com.simplemobiletools.gallery 132 0 2017-09-24 10:35:58
  Battery Charge Limit com.slash.batterychargelimit 20 0 2017-09-24 10:35:58
  Music Player com.simplemobiletools.musicplayer 31 0 2017-09-24 10:35:58
  Orgzly com.orgzly 76 0 2017-09-24 10:35:58
  Privacy Browser com.stoutner.privacybrowser.standard 26 0 2017-09-24 10:35:58
  Syncthing com.nutomic.syncthingandroid 4124 1 2017-09-24 10:35:57
  Yalp Store com.github.yeriomin.yalpstore 26 0 2017-09-24 10:35:56
  Call Recorder com.github.axet.callrecorder 104 2 2017-09-24 10:35:56
  GreenBits (testnet) com.greenaddress.greenbits_android_walle.. 200 0 2017-09-24 10:35:56
  GreenBits com.greenaddress.greenbits_android_walle.. 202 0 2017-09-24 10:35:56
  Hourly Reminder com.github.axet.hourlyreminder 319 0 2017-09-24 10:35:55
  Call Recorder com.github.axet.callrecorder 102 0 2017-09-24 10:35:55
  DAVdroid at.bitfire.davdroid 170 0 2017-09-24 10:35:54
  AndrOBD com.fr3ts0n.ecu.gui.androbd 10500 0 2017-09-24 10:35:54
  Audio Recorder com.github.axet.audiorecorder 207 0 2017-09-24 10:35:54
  French Calendar ca.rmen.android.frenchcalendar 1174 0 2017-09-24 10:35:54
  Persian Calendar com.byagowi.persiancalendar 531 0 2017-09-24 10:35:54
  ICSdroid at.bitfire.icsdroid 12 0 2017-09-24 10:35:54
  Rental Calc protect.rentalcalc 5 0 2017-09-18 09:49:03
  Budget Watch protect.budgetwatch 15 0 2017-09-18 09:49:02
  Baby Sleep Sounds protect.babysleepsounds 11 0 2017-09-18 09:49:02
  primitive ftpd org.primftpd 25 1 2017-09-18 09:49:02
  Mysplash com.wangdaye.mysplash 320 0 2017-09-18 09:49:01
  Mysplash com.wangdaye.mysplash 319 0 2017-09-18 09:49:00
  ApkTrack fr.kwiatkowski.ApkTrack 23 0 2017-09-16 14:06:44
  Markor net.gsantner.markor 3 0 2017-09-16 14:06:44
  Phone Saver link.standen.michael.phonesaver 21 0 2017-09-16 14:06:44
  DataStats jp.takke.datastats 20 0 2017-09-16 14:06:44
  la/u/ncher us.dangeru.la_u_ncher413 413 0 2017-09-16 14:06:44
  Simple Solitaire Collection de.tobiasbielefeld.solitaire 55 0 2017-09-16 14:06:43
  Media Merger com.github.axet.mover 95 0 2017-09-16 14:06:42
  ToneGenerator.class com.github.axet.tonegenerator 14 0 2017-09-16 14:06:42
  Red Moon com.jmstudios.redmoon 33 0 2017-09-16 14:06:42
  FTP Server (Free) be.ppareit.swiftp_free 21701 0 2017-09-16 14:06:42
  SMS Backup+ com.zegoggles.smssync 1557 0 2017-09-16 14:06:42
  Ameixa org.xphnx.ameixa 47 0 2017-09-14 18:23:08
  Moscow Wi-Fi autologin pw.thedrhax.mosmetro 63 0 2017-09-14 18:23:08
  Traccar Client org.traccar.client 40 0 2017-09-14 18:23:07
  Nextcloud Bookmarks org.schabi.nxbookmarks 2 0 2017-09-14 18:23:07
  ownCloud Bookmarks org.schabi.nxbookmarks.owncloud 2 0 2017-09-14 18:23:07
  WiFi Location Service org.fitchfamily.android.wifi_backend 37 0 2017-09-14 18:23:04
  F-Droid org.fdroid.fdroid 1000003 0 2017-09-14 18:23:04
  Twidere org.mariotaku.twidere 389 0 2017-09-14 18:23:04
  PassAndroid org.ligi.passandroid 342 0 2017-09-14 18:23:04
  MemeTastic io.github.gsantner.memetastic 34 0 2017-09-14 18:23:03
  Phone Saver link.standen.michael.phonesaver 19 0 2017-09-14 18:23:03
  BMI Calculator com.zola.bmi 301 0 2017-09-14 18:23:02
  LaunchTime com.quaap.launchtime 70 2 2017-09-14 18:23:02
  Password Store com.zeapo.pwdstore 89 0 2017-09-14 18:23:02
  TRIfA com.zoffcc.applications.trifa 10008 0 2017-09-14 18:23:02
  Simple Brick Games de.tobiasbielefeld.brickgames 16 0 2017-09-14 18:23:02
  Nextcloud SMS fr.unix_experience.owncloud_sms 57 0 2017-09-14 18:23:02
  Riot.im im.vector.alpha 70100 0 2017-09-14 18:23:02
  Catapult com.kaneoriley.cyanogenport.launcher3 1 0 2017-09-14 18:23:01
  Dziennik com.wabadaba.dziennik 4 0 2017-09-14 18:23:01
  Lunary com.rehanced.lunary 20 0 2017-09-14 18:23:01
  dandelion* com.github.dfa.diaspora_android 24 0 2017-09-14 18:23:00
  GreenBits com.greenaddress.greenbits_android_walle.. 200 0 2017-09-14 18:23:00
  Freifunk Auto Connect com.example.tobiastrumm.freifunkautoconn.. 9 0 2017-09-14 18:22:59
  Media Merger com.github.axet.mover 94 0 2017-09-14 18:22:59
  Hourly Reminder com.github.axet.hourlyreminder 316 0 2017-09-14 18:22:59
  Changelog com.bytehamster.changelog 32 0 2017-09-14 18:22:59
  LabCoat com.commit451.gitlab 2041100 0 2017-09-14 18:22:59
  LabCoat com.commit451.gitlab 2041000 0 2017-09-14 18:22:59
  Ameixa org.xphnx.ameixa 46 0 2017-09-12 21:53:02
  1010! Klooni io.github.lonamiwebs.klooni 800 0 2017-09-12 21:53:02
  Kontalk org.kontalk 244 0 2017-09-12 21:53:02
  Editor org.billthefarmer.editor 105 0 2017-09-12 21:53:01
  Tachiyomi eu.kanade.tachiyomi 26 0 2017-09-12 21:53:01
  Tickmate de.smasi.tickmate 42 0 2017-09-12 21:53:01
  Rtl-sdr driver marto.rtl_tcp_andro 20 1 2017-09-12 21:53:01
  Froody io.github.froodyapp 28 0 2017-09-12 21:53:01
  Ministocks nitezh.ministock 70 0 2017-09-12 21:53:01
  Calendar com.simplemobiletools.calendar 93 0 2017-09-12 21:53:00
  Ad Free ch.abertschi.adfree 16 2 2017-09-12 21:53:00
  Voice de.ph1b.audiobook 210 0 2017-09-12 21:53:00
  MPDroid com.namelessdev.mpdroid 54 0 2017-09-12 21:53:00
  Feeder com.nononsenseapps.feeder 18 0 2017-09-12 21:53:00
  DAVdroid at.bitfire.davdroid 167 0 2017-09-12 21:52:59
  ICSdroid at.bitfire.icsdroid 10 0 2017-09-12 21:52:59
  p≡p pep.android.k9 60 0 2017-09-11 08:29:21
  Berlin-Vegan org.berlin_vegan.bvapp 26 0 2017-09-11 08:29:20
  F-Droid Privileged Extension org.fdroid.fdroid.privileged 2060 0 2017-09-11 08:29:20
  FAST App Search Tool org.ligi.fast 67 0 2017-09-11 08:29:20
  My Expenses org.totschnig.myexpenses 294 0 2017-09-11 08:29:20
  Tinc org.pacien.tincapp 7 0 2017-09-11 08:29:20
  PinPoi io.github.fvasco.pinpoi 48 0 2017-09-11 08:29:19
  Defendo ir.hsn6.defendo 6 0 2017-09-11 08:29:19
  Tachiyomi eu.kanade.tachiyomi 25 0 2017-09-11 08:29:19
  Ministocks nitezh.ministock 69 0 2017-09-11 08:29:19
  TourCount com.wmstein.tourcount 219 0 2017-09-11 08:29:18
  TransektCount com.wmstein.transektcount 205 0 2017-09-11 08:29:18
  QuickDic de.reimardoeffinger.quickdic 93 0 2017-09-11 08:29:18
  Voice de.ph1b.audiobook 209 0 2017-09-11 08:29:18
  Syncthing com.nutomic.syncthingandroid 4123 1 2017-09-11 08:29:16
  BeHe Keyboard com.vlath.keyboard 107 0 2017-09-11 08:29:16
  Share to Clipboard com.tengu.sharetoclipboard 18 0 2017-09-11 08:29:16
  TourCount com.wmstein.tourcount 218 0 2017-09-11 08:29:16
  Orgzly com.orgzly 72 0 2017-09-11 08:29:15
  File Manager com.simplemobiletools.filemanager 35 0 2017-09-11 08:29:15
  Audio Recorder com.github.axet.audiorecorder 206 0 2017-09-11 08:29:14
  Call Recorder com.github.axet.callrecorder 100 0 2017-09-11 08:29:14
  Acrylic Paint anupam.acrylic 16 0 2017-09-11 08:29:14
  GreenBits (testnet) com.greenaddress.greenbits_android_walle.. 99 0 2017-09-11 08:29:14
  GreenBits com.greenaddress.greenbits_android_walle.. 99 0 2017-09-11 08:29:14
  Calendar Notifications com.github.quarck.calnotify 4320 0 2017-09-11 08:29:14
  NewsBlur com.newsblur 144 0 2017-09-11 08:29:14
  Vanilla Music ch.blinkenlights.android.vanilla 10549 0 2017-09-11 08:29:13
  Weather notification ru.gelin.android.weather.notification 54 0 2017-09-06 22:41:38
  Sugarizer org.olpc_france.sugarizer 9000 0 2017-09-06 22:41:37
  Firefox Klar org.mozilla.klar 10 0 2017-09-06 22:41:34
  Senreta Vortaro org.mcxa.vortaro 2 0 2017-09-06 22:41:34
  AURdroid com.rascarlo.aurdroid 5 0 2017-09-06 22:41:33
  F-Droid org.fdroid.fdroid 1000002 0 2017-09-06 22:41:33
  OpenRedmine jp.redmine.redmineclient 56 0 2017-09-06 22:41:33
  PinPoi io.github.fvasco.pinpoi 46 0 2017-09-06 22:41:33
  Feeder com.nononsenseapps.feeder 17 0 2017-09-06 22:41:33
  TV KILL com.redirectapps.tvkill 21 0 2017-09-06 22:41:33
  Tap 'n' Turn com.gabm.screenrotationcontrol 13 0 2017-09-06 22:41:32
  Stringlate io.github.lonamiwebs.stringlate 1000 0 2017-09-03 18:05:29
  PinPoi io.github.fvasco.pinpoi 45 0 2017-09-03 18:05:29
  HHS Moodle de.baumann.hhsmoodle 57 0 2017-09-03 18:05:29
  ooniprobe org.openobservatory.ooniprobe 12 0 2017-09-03 18:05:29
  PassAndroid org.ligi.passandroid 341 0 2017-09-03 18:05:29
  Ghost Commander - Samba plugin com.ghostsq.commander.samba 62 0 2017-09-03 18:05:28
  MPDroid com.namelessdev.mpdroid 58 0 2017-09-03 18:05:28
  AnySoftKeyboard - Czech Language Pack org.herrlado.ask.languagepack.czech 259 0 2017-09-02 08:59:25
  AFWall+ dev.ukanth.ufirewall 15972 0 2017-09-02 08:59:24
  Browser de.baumann.browser 59 0 2017-09-02 08:59:24
  TransektCount com.wmstein.transektcount 204 0 2017-09-02 08:59:24
  Termux:Boot com.termux.boot 2 0 2017-09-02 08:59:24
  Cythara com.github.cythara 4 0 2017-09-02 08:59:23
  ownCloud Beta com.owncloud.android.beta 20400001 0 2017-09-02 08:59:23
  Amaze com.amaze.filemanager 63 0 2017-09-02 08:59:22
  AnySoftKeyboard - Spanish Language Pack com.anysoftkeyboard.languagepack.spain 167 0 2017-09-02 08:59:22
  FTP Server (Free) be.ppareit.swiftp_free 21700 0 2017-09-02 08:59:22
  AnySoftKeyboard - Portuguese Language Pa.. com.anysoftkeyboard.languagepack.portugu.. 101 0 2017-09-02 08:59:22
  Wikipedia org.wikipedia 203 0 2017-09-01 10:01:05
  My Expenses org.totschnig.myexpenses 292 0 2017-09-01 10:01:04
  OpenKeychain org.sufficientlysecure.keychain 46000 0 2017-09-01 10:01:04
  IceCatMobile org.gnu.icecat 520310 0 2017-09-01 10:01:00
  IceCatMobile org.gnu.icecat 520300 0 2017-09-01 10:00:57
  Shattered Pixel Dungeon com.shatteredpixel.shatteredpixeldungeon 209 0 2017-09-01 10:00:56
  Draw com.simplemobiletools.draw 20 0 2017-09-01 10:00:56
  Smart Gadget com.sensirion.smartgadget 96 0 2017-09-01 10:00:56
  Sensor Readout de.onyxbits.sensorreadout 8 0 2017-09-01 10:00:56
  Bimba ml.adamsprogs.bimba 4 0 2017-09-01 10:00:56
  ScreenInfo com.jotabout.screeninfo 107 0 2017-09-01 10:00:55
  Life Counter com.foxykeep.lifecounter 2 0 2017-09-01 10:00:55
  Periodic Table com.frozendevs.periodictable 5 0 2017-09-01 10:00:55
  Paper com.kn.paper_foss_theme 26 0 2017-09-01 10:00:55
  Graph 89 com.Bisha.TI89EmuDonation 1133 0 2017-09-01 10:00:54
  VocableTrainer Beta vocabletrainer.heinecke.aron.vocabletrai.. 7 0 2017-08-30 10:23:17
  WPGen net.glsk.wpgen 133 0 2017-08-30 10:23:14
  My Expenses org.totschnig.myexpenses 291 0 2017-08-30 10:23:14
  Transistor org.y20k.transistor 45 0 2017-08-30 10:23:14
  Trackbook org.y20k.trackbook 14 0 2017-08-30 10:23:14
  Kwik EFIS player.efis.pfd 13 0 2017-08-30 10:23:14
  Blokada org.blokada.alarm 28 0 2017-08-30 10:23:13
  OpenKeychain org.sufficientlysecure.keychain 45100 0 2017-08-30 10:23:13
  ooniprobe org.openobservatory.ooniprobe 11 0 2017-08-30 10:23:13
  Critical Maps de.stephanlindauer.criticalmaps 31 0 2017-08-30 10:23:12
  Budget com.notriddle.budget 44 0 2017-08-30 10:23:12
  DiskUsage com.google.android.diskusage 3080 0 2017-08-30 10:23:12
  Equate com.llamacorp.equate 7 0 2017-08-30 10:23:12
  Budget com.notriddle.budget 43 0 2017-08-30 10:23:12
  OctoDroid com.gh4a 54 0 2017-08-30 10:23:11
  SD Scanner com.gmail.jerickson314.sdscanner 13 0 2017-08-30 10:23:11
  K-9 Mail com.fsck.k9 23271 0 2017-08-30 10:23:11
  Amaze com.amaze.filemanager 62 0 2017-08-30 10:23:10
  CommonsLab com.commonslab.commonslab 3 0 2017-08-30 10:23:10
  Poet Assistant ca.rmen.android.poetassistant 112000 0 2017-08-30 10:23:09
  Metrodroid au.id.micolous.farebot 31 0 2017-08-30 10:23:09
  BusyBox ru.meefik.busybox 34 0 2017-08-28 07:56:57
  Fennec F-Droid org.mozilla.fennec_fdroid 550220 1 2017-08-28 07:56:54
  Fennec F-Droid org.mozilla.fennec_fdroid 550210 1 2017-08-28 07:56:50
  Don du Sang fr.mobdev.blooddonation 11 0 2017-08-28 07:56:46
  QuickDic de.reimardoeffinger.quickdic 92 0 2017-08-28 07:56:46
  Enchanted Fortress hr.kravarscan.enchantedfortress 7 0 2017-08-28 07:56:45
  MaterialFBook me.zeeroooo.materialfb 52 0 2017-08-28 07:56:45
  Fennec F-Droid org.mozilla.fennec_fdroid 550200 1 2017-08-28 07:56:45
  KDE Connect org.kde.kdeconnect_tp 1660 0 2017-08-28 07:56:45
  Privacy Browser com.stoutner.privacybrowser.standard 25 0 2017-08-28 07:56:44
  AnySoftKeyboard - Icelandic Language Pac.. com.anysoftkeyboard.languagepack.iceland.. 52 0 2017-08-28 07:56:44
  Simple Litecoin Widget com.brentpanther.litecoinwidget 9 0 2017-08-28 07:56:44
  Cythara com.github.cythara 3 0 2017-08-28 07:56:44
  Simple Ethereum Widget com.brentpanther.ethereumwidget 11 0 2017-08-28 07:56:44
  Simple Bitcoin Cash Widget com.brentpanther.bitcoincashwidget 3 0 2017-08-28 07:56:44
  Here GPS Location com.borneq.heregpslocation 1 0 2017-08-28 07:56:44
  Simple Bitcoin Widget com.brentpanther.bitcoinwidget 112 0 2017-08-28 07:56:44
  Material Player de.ph1b.audiobook 208 0 2017-08-28 07:56:44
  Tinc org.pacien.tincapp 6 0 2017-08-26 16:05:53
  Trackbook org.y20k.trackbook 13 0 2017-08-26 16:05:53
  Conversations eu.siacs.conversations 234 0 2017-08-24 18:51:46
  Cherry de.live.gdev.cherrymusic 12 0 2017-08-24 18:51:46
  Don du Sang fr.mobdev.blooddonation 8 0 2017-08-24 18:51:46
  SlimSocial for Facebook it.rignanese.leo.slimfacebook 47 0 2017-08-24 18:51:46
  Kimai de.live.gdev.timetracker 22 0 2017-08-24 18:51:46
  LinCal felixwiemuth.lincal 10 0 2017-08-24 18:51:46
  Delta Chat com.b44t.messenger 433 0 2017-08-24 18:51:45
  org.openbmap.unifiedNlpProvider org.openbmap.unifiedNlp 20 0 2017-08-23 21:39:35
  Cherry de.live.gdev.cherrymusic 11 0 2017-08-23 21:39:33
  Kimai de.live.gdev.timetracker 21 0 2017-08-23 21:39:33
  uNote app.varlorg.unote 8 0 2017-08-23 21:39:32
  Pocket Up com.jarsilio.android.pocketup 1 0 2017-08-23 21:39:32
  Conversations eu.siacs.conversations 233 0 2017-08-23 08:42:38
  andOTP org.shadowice.flocke.andotp 8 0 2017-08-23 08:42:38
  Open Camera net.sourceforge.opencamera 51 0 2017-08-23 08:42:37
  Firefox Klar org.mozilla.klar 9 0 2017-08-23 08:42:37
  Yaaic org.yaaic 12 0 2017-08-23 08:42:37
  Tinc org.pacien.tincapp 5 0 2017-08-23 08:42:37
  Yaaic org.yaaic 13 17 2017-08-23 08:42:37
  LibreNews app.librenews.io.librenews 4 0 2017-08-23 08:42:36
  AsteroidOS Sync org.asteroidos.sync 5 0 2017-08-22 09:03:08
  MAXS Module Notification org.projectmaxs.module.notification 2000400598 0 2017-08-22 09:03:08
  MAXS Module AlarmSet org.projectmaxs.module.alarmset 2000400598 0 2017-08-22 09:03:08
  MAXS Module NFC org.projectmaxs.module.nfc 2000400598 0 2017-08-22 09:03:08
  VocableTrainer Beta vocabletrainer.heinecke.aron.vocabletrai.. 6 0 2017-08-22 09:03:08
  MAXS Module LocationFine org.projectmaxs.module.locationfine 2000400598 0 2017-08-22 09:03:08
  MAXS Module WifiChange org.projectmaxs.module.wifichange 2000400598 0 2017-08-22 09:03:08
  MAXS Transport XMPP org.projectmaxs.transport.xmpp 2000400598 0 2017-08-22 09:03:08
  MAXS Module SmsNotify org.projectmaxs.module.smsnotify 2000400598 0 2017-08-22 09:03:08
  MAXS Module ContactsRead org.projectmaxs.module.contactsread 2000400598 0 2017-08-22 09:03:08
  MAXS Module SmsSend org.projectmaxs.module.smssend 2000400598 0 2017-08-22 09:03:08
  MAXS Module WifiAccess org.projectmaxs.module.wifiaccess 2000400598 0 2017-08-22 09:03:08
  MAXS Main org.projectmaxs.main 2000400598 0 2017-08-22 09:03:08
  MAXS Module FileWrite org.projectmaxs.module.filewrite 2000400598 0 2017-08-22 09:03:08
  MAXS Module SmsRead org.projectmaxs.module.smsread 2000400598 0 2017-08-22 09:03:08
  MAXS Module Shell org.projectmaxs.module.shell 2000400598 0 2017-08-22 09:03:08
  MAXS Module Bluetooth org.projectmaxs.module.bluetooth 2000400598 0 2017-08-22 09:03:08
  MAXS Module PhonestateRead org.projectmaxs.module.phonestateread 2000400598 0 2017-08-22 09:03:08
  MAXS Module FileRead org.projectmaxs.module.fileread 2000400598 0 2017-08-22 09:03:08
  MAXS Module Misc org.projectmaxs.module.misc 2000400598 0 2017-08-22 09:03:08
  MAXS Module Ringermode org.projectmaxs.module.ringermode 2000400598 0 2017-08-22 09:03:08
  MAXS Module BluetoothAdmin org.projectmaxs.module.bluetoothadmin 2000400598 0 2017-08-22 09:03:08
  MAXS Module SmsWrite org.projectmaxs.module.smswrite 2000400598 0 2017-08-22 09:03:08
  MAXS Module Clipboard org.projectmaxs.module.clipboard 2000400598 0 2017-08-22 09:03:08
  PasseGares fr.nocle.passegares 151 0 2017-08-22 09:03:07
  Derandom org.asnelt.derandom 11 0 2017-08-22 09:03:07
  Symphony org.fitchfamily.android.symphony 9 0 2017-08-22 09:03:07
  Bimba ml.adamsprogs.bimba 3 0 2017-08-22 09:03:07
  I2P net.i2p.android.router 4745238 0 2017-08-22 09:03:07
  org.openbmap.unifiedNlpProvider org.openbmap.unifiedNlp 19 0 2017-08-22 09:03:07
  Democracy Droid com.workingagenda.democracydroid 35 0 2017-08-22 09:03:06
  Simple Solitaire Collection de.tobiasbielefeld.solitaire 54 0 2017-08-22 09:03:06
  Browser de.baumann.browser 58 1 2017-08-22 09:03:05
  TRIfA com.zoffcc.applications.trifa 10007 0 2017-08-22 09:03:05
  Shader Editor de.markusfisch.android.shadereditor 36 0 2017-08-22 09:03:05
  Shattered Pixel Dungeon com.shatteredpixel.shatteredpixeldungeon 206 0 2017-08-22 09:03:05
  Seafile com.seafile.seadroid2 70 0 2017-08-22 09:03:05
  PhotoPhase com.ruesga.android.wallpapers.photophase 1035 0 2017-08-22 09:03:04
  LaunchTime com.quaap.launchtime 60 0 2017-08-22 09:03:04
  WaveUp com.jarsilio.android.waveup 33 0 2017-08-22 09:03:03
  Share via HTTP com.MarcosDiez.shareviahttp 28 0 2017-08-22 09:03:03
  Paper com.kn.paper_foss_theme 24 0 2017-08-22 09:03:03
  SMS Ping com.itds.sms.ping 3 0 2017-08-22 09:03:03
  microMathematics Plus com.mkulesh.micromath.plus 301 0 2017-08-22 09:03:03
  AAT ch.bailu.aat 19 0 2017-08-22 09:03:02
  Tap 'n' Turn com.gabm.screenrotationcontrol 12 0 2017-08-22 09:03:02
  openScale com.health.openscale 17 0 2017-08-22 09:03:02
  ICEcons com.dkanada.icecons 17 0 2017-08-22 09:03:02
  Network Monitor ca.rmen.android.networkmonitor 12902 0 2017-08-22 09:03:01
  OSMBugs org.gittner.osmbugs 25 0 2017-08-20 23:24:59
  OpenManga org.nv95.openmanga 1111 0 2017-08-20 23:24:59
  OSMBugs org.gittner.osmbugs 24 0 2017-08-20 23:24:59
  Commons fr.free.nrw.commons 74 0 2017-08-20 23:24:58
  A Photo Manager de.k3b.android.androFotoFinder 32 0 2017-08-20 23:24:56
  Zapp de.christinecoenen.code.zapp 20 0 2017-08-20 23:24:56
  OCReader email.schaal.ocreader 40 0 2017-08-20 23:24:56
  Shader Editor de.markusfisch.android.shadereditor 35 0 2017-08-20 23:24:55
  Termux:Styling com.termux.styling 19 0 2017-08-20 23:24:55
  Easy Open Link de.audioattack.openlink 16 0 2017-08-20 23:24:55
  ABCore com.greenaddress.abcore 59 0 2017-08-20 23:24:54
  Termux:Styling com.termux.styling 18 0 2017-08-20 23:24:54
  Syncthing com.nutomic.syncthingandroid 4122 3 2017-08-20 23:24:54
  Paper com.kn.paper_foss_theme 22 0 2017-08-20 23:24:53
  Mi Manga Nu ar.rulosoft.mimanganu 67 0 2017-08-20 23:24:52
  Changelog com.bytehamster.changelog 31 0 2017-08-20 23:24:52
  Network Monitor ca.rmen.android.networkmonitor 12901 0 2017-08-20 23:24:52
  Trackbook org.y20k.trackbook 12 0 2017-08-15 08:20:31
  OsmAnd~ net.osmand.plus 275 0 2017-08-15 08:20:27
  WiFiAnalyzer com.vrem.wifianalyzer 31 0 2017-08-15 08:20:26
  Browser de.baumann.browser 55 1 2017-08-15 08:20:26
  micro Mathematics Plus com.mkulesh.micromath.plus 300 0 2017-08-15 08:20:26
  Stringlate io.github.lonamiwebs.stringlate 999 0 2017-08-15 08:20:26
  Seafile com.seafile.seadroid2 69 0 2017-08-15 08:20:26
  Kandroid in.andres.kandroid 17 0 2017-08-15 08:20:26
  Weather de.baumann.weather 46 0 2017-08-15 08:20:26
  Shader Editor de.markusfisch.android.shadereditor 34 0 2017-08-15 08:20:26
  QuickDic de.reimardoeffinger.quickdic 91 0 2017-08-15 08:20:26
  Simply Solid com.enrico.earthquake 16 0 2017-08-15 08:20:25
  Vanilla Music ch.blinkenlights.android.vanilla 10540 0 2017-08-15 08:20:25
  French Calendar ca.rmen.android.frenchcalendar 1172 0 2017-08-15 08:20:25
  dandelion* com.github.dfa.diaspora_android 23 0 2017-08-15 08:20:25
  OpenAPK com.dkanada.openapk 34 0 2017-08-15 08:20:25
  BusyBox ru.meefik.busybox 32 0 2017-08-14 11:55:34
  Symphony org.fitchfamily.android.symphony 8 0 2017-08-14 11:55:33
  Gerberoid se.pp.mc.android.Gerberoid 10000 0 2017-08-14 11:55:33
  OsmAnd~ net.osmand.plus 265 0 2017-08-14 11:55:29
  AFWall+ dev.ukanth.ufirewall 15960 0 2017-08-14 11:55:28
  Riot.im im.vector.alpha 70000 0 2017-08-14 11:55:28
  Web Opac de.geeksfactory.opacclient 176 0 2017-08-14 11:55:27
  Zapp de.christinecoenen.code.zapp 19 0 2017-08-14 11:55:26
  Feeder com.nononsenseapps.feeder 16 0 2017-08-14 11:55:26
  andOTP org.shadowice.flocke.andotp 7 0 2017-08-11 06:40:22
  AndStatus org.andstatus.app 231 0 2017-08-11 06:40:10
  RadioDroid net.programmierecke.radiodroid2 47 0 2017-08-11 06:40:10
  Symphony org.fitchfamily.android.symphony 7 0 2017-08-11 06:40:10
  Currency org.billthefarmer.currency 109 0 2017-08-11 06:40:10
  Another RSS de.digisocken.anotherrss 201 0 2017-08-11 06:40:08
  OGS com.ogsdroid 5 0 2017-08-11 06:40:08
  SMS Scheduler com.github.yeriomin.smsscheduler 5 0 2017-08-09 07:57:02
  Share to Clipboard com.tengu.sharetoclipboard 17 0 2017-08-09 07:57:02
  MaterialFBook me.zeeroooo.materialfb 50 0 2017-08-09 07:57:02
  File Manager com.simplemobiletools.filemanager 34 0 2017-08-09 07:57:02
  DNS66 org.jak_linux.dns66 16 0 2017-08-09 07:57:02
  RedReader org.quantumbadger.redreader 81 0 2017-08-08 09:45:31
  KIBA org.schabi.kiba 2 0 2017-08-08 09:45:31
  Senreta Vortaro org.mcxa.vortaro 1 0 2017-08-08 09:45:31
  WTF‽ (The MirOS Project) de.naturalnet.mirwtfapp 9 0 2017-08-08 09:45:30
  Crossword org.billthefarmer.crossword 105 0 2017-08-08 09:45:30
  Tickmate de.smasi.tickmate 41 0 2017-08-08 09:45:30
  M.A.L.P. org.gateshipone.malp 17 0 2017-08-08 09:45:30
  Another RSS de.digisocken.anotherrss 195 0 2017-08-08 09:45:29
  Password Store com.zeapo.pwdstore 88 0 2017-08-08 09:45:29
  Zapp de.christinecoenen.code.zapp 18 0 2017-08-08 09:45:29
  BeHe Keyboard com.vlath.keyboard 102 0 2017-08-08 09:45:28
  AnySoftKeyboard - Macedonian Language Pa.. com.anysoftkeyboard.languagepack.macedon.. 168 0 2017-08-08 09:45:28
  Open Note Scanner com.todobom.opennotescanner 29 0 2017-08-08 09:45:28
  AnySoftKeyboard - Spanish Language Pack com.anysoftkeyboard.languagepack.spain 165 0 2017-08-08 09:45:27
  Vanilla Tag Editor com.kanedias.vanilla.audiotag 11 0 2017-08-08 09:45:27
  AnySoftKeyboard - German Language Pack com.anysoftkeyboard.languagepack.german 173 0 2017-08-08 09:45:27
  AnySoftKeyboard - Hebrew Language Pack com.anysoftkeyboard.languagepack.hebrew 168 0 2017-08-08 09:45:27
  Anuto TD ch.logixisland.anuto 14 0 2017-08-08 09:45:27
  Vanilla Cover Fetcher com.kanedias.vanilla.coverfetch 5 0 2017-08-08 09:45:27
  packlist com.nbossard.packlist 17 0 2017-08-08 09:45:27
  Nextcloud Bookmarks org.schabi.nxbookmarks 1 0 2017-08-07 06:38:35
  RKFRead se.norenh.rkfread 3 0 2017-08-07 06:38:35
  GSM Location Service org.fitchfamily.android.gsmlocation 63 0 2017-08-07 06:38:31
  Kandroid in.andres.kandroid 16 0 2017-08-07 06:38:31
  DAPNET de.hampager.dapnetmobile 13 0 2017-08-07 06:38:30
  A Photo Manager de.k3b.android.androFotoFinder 31 0 2017-08-07 06:38:30
  Beacon Locator com.samebits.beacon.locator 115 0 2017-08-07 06:38:30
  Another RSS de.digisocken.anotherrss 18 0 2017-08-07 06:38:30
  Tiny Travel Tracker com.rareventure.gps2 74 0 2017-08-07 06:38:29
  Tusky com.keylesspalace.tusky 25 0 2017-08-07 06:38:28
  LibreNews app.librenews.io.librenews 3 0 2017-08-07 06:38:27
  World Clock & Weather ch.corten.aha.worldclock 47 0 2017-08-07 06:38:27
  OpenPass com.example.openpass 1 0 2017-08-07 06:38:27
  Baby Sleep Sounds protect.babysleepsounds 10 0 2017-08-02 21:41:14
  Authorizer net.tjado.passwdsafe 204 0 2017-08-02 21:41:13
  Survival Manual org.ligi.survivalmanual 41 0 2017-08-02 21:41:13
  KDE Connect org.kde.kdeconnect_tp 1650 0 2017-08-02 21:41:13
  BirthDay Droid com.tmendes.birthdaydroid 12 0 2017-08-02 21:41:12
  Enchanted Fortress hr.kravarscan.enchantedfortress 6 0 2017-08-02 21:41:12
  Password Store com.zeapo.pwdstore 87 0 2017-08-02 21:41:12
  Minetest Mods com.rubenwardy.minetestmodmanager 19 0 2017-08-02 21:41:11
  Tiny Travel Tracker com.rareventure.gps2 73 0 2017-08-02 21:41:10
  Ghost Commander com.ghostsq.commander 329 0 2017-08-02 21:41:09
  UART Smartwatch click.dummer.UartSmartwatch 32 0 2017-08-02 21:41:09
  Anuto TD ch.logixisland.anuto 13 0 2017-08-02 21:41:08
  AnySoftKeyboard com.menny.android.anysoftkeyboard 2658 0 2017-07-31 13:41:54
  Riot.im im.vector.alpha 61401 0 2017-07-28 17:17:09
  USB Mountr streetwalrus.usbmountr 5 0 2017-07-28 17:17:09
  Ameixa org.xphnx.ameixa 45 0 2017-07-28 06:10:06
  AndStatus org.andstatus.app 229 0 2017-07-28 06:10:06
  /r/Android App store subreddit.android.appstore 7100 0 2017-07-28 06:10:06
  Seafood Berserker! com.quaap.fishberserker 2 0 2017-07-28 06:10:05
  AnySoftKeyboard - Czech Language Pack org.herrlado.ask.languagepack.czech 258 0 2017-07-28 06:10:05
  Loyalty Card Keychain protect.card_locker 14 0 2017-07-27 14:50:56
  Telegram org.telegram.messenger 10435 0 2017-07-27 14:50:56
  Nori io.github.tjg1.nori 13 0 2017-07-27 14:50:55
  Syncopoli org.amoradi.syncopoli 9 0 2017-07-27 14:50:55
  Syncopoli org.amoradi.syncopoli 8 0 2017-07-27 14:50:55
  Odyssey org.gateshipone.odyssey 18 0 2017-07-27 14:50:55
  Calendar Widget com.plusonelabs.calendar 414 0 2017-07-27 14:50:54
  AURdroid com.rascarlo.aurdroid 4 0 2017-07-27 14:50:54
  Calendula es.usc.citius.servando.calendula 30 0 2017-07-27 14:50:54
  Periodical de.arnowelzel.android.periodical 32 0 2017-07-27 14:50:54
  ToGoZip de.k3b.android.toGoZip 9 0 2017-07-25 16:52:52
  M.A.L.P. org.gateshipone.malp 16 0 2017-07-23 21:19:32
  EasyRSS org.freshrss.easyrss 608 0 2017-07-23 21:19:32
  AnySoftKeyboard com.menny.android.anysoftkeyboard 2566 0 2017-07-23 21:19:31
  Lunary com.rehanced.lunary 19 0 2017-07-23 21:19:31
  Web Opac de.geeksfactory.opacclient 175 0 2017-07-23 21:19:31
  MuPDF com.artifex.mupdfdemo 113 0 2017-07-23 21:19:30
  MuPDF com.artifex.mupdfdemo 112 0 2017-07-23 21:19:28
  AnySoftKeyboard - Dutch Language Pack com.anysoftkeyboard.languagepack.dutch 5 0 2017-07-23 21:19:27
  MuPDF com.artifex.mupdfdemo 111 0 2017-07-23 21:19:27
  1010! Klooni io.github.lonamiwebs.klooni 700 2 2017-07-22 22:55:56
  Echo eu.mrogalski.saidit 13 0 2017-07-22 22:55:56
  OpenTasks org.dmfs.tasks 481 0 2017-07-22 22:55:56
  Mirror Mirror org.bitbucket.tickytacky.mirrormirror 5 0 2017-07-22 22:55:56
  Goblim fr.mobdev.goblim 10 0 2017-07-22 22:55:55
  Padland com.mikifus.padland 15 0 2017-07-22 22:55:54
  Padland com.mikifus.padland 14 0 2017-07-22 22:55:54
  UniPatcher org.emunix.unipatcher 140200 0 2017-07-19 22:19:47
  F-Droid org.fdroid.fdroid 1000001 0 2017-07-19 22:19:47
  Survival Manual org.ligi.survivalmanual 40 0 2017-07-19 22:19:47
  Habits org.isoron.uhabits 33 0 2017-07-19 22:19:47
  Duorem com.vadimfrolov.duorem 2 0 2017-07-19 22:19:46
  Domodroid org.domogik.domodroid13 33 0 2017-07-19 22:19:46
  Silverfish com.launcher.silverfish 8 0 2017-07-19 22:19:46
  Iven News Reader com.iven.lfflfeedreader 66 0 2017-07-19 22:19:46
  WaveUp com.jarsilio.android.waveup 32 1 2017-07-19 22:19:46
  PasseGares fr.nocle.passegares 150 0 2017-07-19 22:19:46
  LifeCounter com.marceljurtz.lifecounter 10 0 2017-07-19 22:19:46
  NHBooks moe.feng.nhentai 36 0 2017-07-19 22:19:46
  ParkenDD de.jkliemann.parkendd 28 0 2017-07-19 22:19:46
  Internet Radio community.peers.internetradio 3 0 2017-07-19 22:19:46
  NoteBuddy nl.yoerinijs.notebuddy 15 0 2017-07-19 22:19:46
  Barcode Scanner com.google.zxing.client.android 103 0 2017-07-19 22:19:44
  Loyalty Card Keychain protect.card_locker 13 0 2017-07-18 22:02:15
  WALLΞTH org.walleth 17 0 2017-07-18 22:02:15
  Passera gg.mw.passera 1 0 2017-07-18 22:02:14
  RainTime nl.implode.regenalarm 40301 0 2017-07-18 22:02:14
  Clover org.floens.chan 20301 0 2017-07-18 22:02:14
  The Italian Said italian.said.fran.theitaliansaid 2 0 2017-07-18 22:02:14
  Terminal Emulator jackpal.androidterm 72 0 2017-07-18 22:02:14
  Passera gg.mw.passera 2 0 2017-07-18 22:02:14
  Telegram org.telegram.messenger 10305 0 2017-07-18 22:02:14
  NewPipe org.schabi.newpipe 37 0 2017-07-18 22:02:14
  Democracy Droid com.workingagenda.democracydroid 34 0 2017-07-18 22:02:12
  OpenVPN for Android de.blinkt.openvpn 153 0 2017-07-18 22:02:12
  OpenVPN for Android de.blinkt.openvpn 151 0 2017-07-18 22:02:12
  Catan Dice Game com.ridgelineapps.resdicegame 16 0 2017-07-18 22:02:10
  Prayer Times com.metinkale.prayer 191 0 2017-07-18 22:02:10
  Stopwatch com.kodarkooperativet.notificationstopwa.. 5 0 2017-07-18 22:02:09
  Stopwatch com.kodarkooperativet.notificationstopwa.. 6 0 2017-07-18 22:02:09
  PhoneFoneFun com.quaap.phonefonefun 12 0 2017-07-18 22:02:09
  Primary com.quaap.primary 31 0 2017-07-18 22:02:09
  WaveUp com.jarsilio.android.waveup 30 0 2017-07-18 22:02:08
  Delta Chat com.b44t.messenger 423 0 2017-07-18 22:02:06
  ICEcons com.dkanada.icecons 16 0 2017-07-18 22:02:06
  MuPDF mini com.artifex.mupdf.mini 112 0 2017-07-18 22:02:05
  Amaze com.amaze.filemanager 61 0 2017-07-18 22:02:04
  Power Ampache com.antoniotari.reactiveampacheapp 48 0 2017-07-18 22:02:04
  Velocity Calculator ch.jiikuy.velocitycalculator 5 0 2017-07-18 22:02:04
  MuPDF mini com.artifex.mupdf.mini 111 0 2017-07-18 22:02:04
  1010! Klooni io.github.lonamiwebs.klooni 610 0 2017-07-14 17:09:10
  Signal Generator org.billthefarmer.siggen 112 1 2017-07-14 17:09:10
  Material Tea Timer org.ligi.materialteatimer 14 0 2017-07-14 17:09:10
  M.A.L.P. org.gateshipone.malp 15 0 2017-07-14 17:09:10
  SyncOnWifi org.t2.synconwifi 3 0 2017-07-14 17:09:10
  Kontalk org.kontalk 240 0 2017-07-14 17:09:10
  LibreTorrent org.proninyaroslav.libretorrent 5 0 2017-07-14 17:09:10
  OI File Manager org.openintents.filemanager 36 0 2017-07-14 17:09:10
  Muzei net.nurik.roman.muzei 23124 0 2017-07-14 17:09:09
  Materialistic io.github.hidroh.materialistic 74 0 2017-07-14 17:09:09
  TREZOR Manager io.trezor.app 10 0 2017-07-14 17:09:09
  CosyDVR es.esy.CosyDVR 28 0 2017-07-14 17:09:08
  WebApps com.tobykurien.webapps 19 0 2017-07-14 17:09:08
  Notes com.simplemobiletools.notes 37 0 2017-07-14 17:09:08
  GApps Browser com.tobykurien.google_news 18 0 2017-07-14 17:09:08
  Easy Open Link de.audioattack.openlink 15 0 2017-07-14 17:09:08
  Web Opac de.geeksfactory.opacclient 174 0 2017-07-14 17:09:08
  Tachiyomi eu.kanade.tachiyomi 24 0 2017-07-14 17:09:08
  LaunchTime com.quaap.launchtime 53 2 2017-07-14 17:09:07
  OGS com.ogsdroid 4 0 2017-07-14 17:09:07
  Shaarlier com.dimtion.shaarlier 22 0 2017-07-14 17:09:05
  FTP Server (Free) be.ppareit.swiftp_free 21600 0 2017-07-14 17:09:04
  Poet Assistant ca.rmen.android.poetassistant 111900 0 2017-07-14 17:09:04
  AnySoftKeyboard - Brazilian Portuguese L.. com.anysoftkeyboard.languagepack.brazili.. 100 0 2017-07-14 17:09:04
  SexyTopo org.hwyl.sexytopo 15 0 2017-07-09 08:15:16
  Birthday Calendar saschpe.contactevents 160152 0 2017-07-09 08:15:16
  Birthday Calendar saschpe.contactevents 160160 0 2017-07-09 08:15:16
  VoIP.ms SMS net.kourlas.voipms_sms 117 0 2017-07-09 08:15:15
  F-Droid org.fdroid.fdroid 1000000 0 2017-07-09 08:15:15
  Snooder 21 ru.exlmoto.snood21 3 0 2017-07-09 08:15:15
  Snooder 21 ru.exlmoto.snood21 2 0 2017-07-09 08:15:15
  Transistor org.y20k.transistor 41 0 2017-07-09 08:15:15
  IPFSDroid org.ligi.ipfsdroid 10 0 2017-07-09 08:15:15
  Critical Maps de.stephanlindauer.criticalmaps 30 0 2017-07-09 08:15:14
  MaterialFBook me.zeeroooo.materialfb 49 0 2017-07-09 08:15:14
  Night Screen info.papdt.blackblub 13 0 2017-07-09 08:15:14
  Slideshow link.standen.michael.slideshow 27 0 2017-07-09 08:15:14
  Forecastie cz.martykan.forecastie 18 0 2017-07-09 08:15:13
  Critical Maps de.stephanlindauer.criticalmaps 29 0 2017-07-09 08:15:13
  Catan Dice Game com.ridgelineapps.resdicegame 15 0 2017-07-09 08:15:12
  ABCore com.greenaddress.abcore 58 0 2017-07-09 08:15:12
  Screenshot sharer com.tomer.screenshotsharer 5 0 2017-07-09 08:15:12
  Taskbar com.farmerbb.taskbar 155 0 2017-07-09 08:15:11
  ICEcons com.dkanada.icecons 15 0 2017-07-09 08:15:10
  Bitcoin com.btcontract.wallet 52 0 2017-07-09 08:15:09
  Critical Velocity com.alaskalinuxuser.criticalvelocity 10 0 2017-07-09 08:15:09
  NyaaPantsu cat.pantsu.nyaapantsu 1 0 2017-07-09 08:15:09
  MAXS Transport XMPP org.projectmaxs.transport.xmpp 2000300550 0 2017-07-07 12:55:57
  RPN org.scoutant.rpn 1 0 2017-07-07 12:55:57
  MAXS Module WifiAccess org.projectmaxs.module.wifiaccess 2000300550 0 2017-07-07 12:55:56
  MAXS Module SmsWrite org.projectmaxs.module.smswrite 2000300550 0 2017-07-07 12:55:55
  MAXS Module FileWrite org.projectmaxs.module.filewrite 2000300550 0 2017-07-07 12:55:54
  MAXS Module Notification org.projectmaxs.module.notification 2000300550 0 2017-07-07 12:55:54
  MAXS Module SmsSend org.projectmaxs.module.smssend 2000300550 0 2017-07-07 12:55:54
  Beacon Locator com.samebits.beacon.locator 114 0 2017-07-07 12:55:46
  Oscilloscope org.billthefarmer.scope 113 0 2017-07-07 12:55:46
  ToGoZip de.k3b.android.toGoZip 8 0 2017-07-07 12:55:45
  Lyrically com.shkmishra.lyrically 15 0 2017-07-07 12:55:45
  MAXS Module SmsSend org.projectmaxs.module.smssend 2000200549 0 2017-07-05 18:01:19
  MAXS Module Shell org.projectmaxs.module.shell 2000300550 0 2017-07-05 18:01:19
  MAXS Transport XMPP org.projectmaxs.transport.xmpp 2000200549 0 2017-07-05 18:01:19
  MAXS Module WifiChange org.projectmaxs.module.wifichange 2000300550 0 2017-07-05 18:01:19
  RedReader org.quantumbadger.redreader 79 0 2017-07-05 18:01:19
  MAXS Module WifiAccess org.projectmaxs.module.wifiaccess 2000200549 0 2017-07-05 18:01:19
  MAXS Module SmsRead org.projectmaxs.module.smsread 2000300550 0 2017-07-05 18:01:19
  MAXS Module SmsNotify org.projectmaxs.module.smsnotify 2000300550 0 2017-07-05 18:01:19
  MAXS Module SmsWrite org.projectmaxs.module.smswrite 2000200549 0 2017-07-05 18:01:19
  Catan Dice Game com.ridgelineapps.resdicegame 14 0 2017-07-05 18:01:18
  MAXS Module Clipboard org.projectmaxs.module.clipboard 2000300550 0 2017-07-05 18:01:18
  MAXS Module FileWrite org.projectmaxs.module.filewrite 2000200549 0 2017-07-05 18:01:18
  MAXS Module Misc org.projectmaxs.module.misc 2000300550 0 2017-07-05 18:01:18
  MAXS Module Notification org.projectmaxs.module.notification 2000200549 0 2017-07-05 18:01:18
  MAXS Main org.projectmaxs.main 2000300550 0 2017-07-05 18:01:18
  MAXS Module Bluetooth org.projectmaxs.module.bluetooth 2000300550 0 2017-07-05 18:01:18
  MAXS Module LocationFine org.projectmaxs.module.locationfine 2000300550 0 2017-07-05 18:01:18
  MAXS Module BluetoothAdmin org.projectmaxs.module.bluetoothadmin 2000300550 0 2017-07-05 18:01:18
  MAXS Module AlarmSet org.projectmaxs.module.alarmset 2000300550 0 2017-07-05 18:01:18
  MAXS Module PhonestateRead org.projectmaxs.module.phonestateread 2000300550 0 2017-07-05 18:01:18
  MAXS Module NFC org.projectmaxs.module.nfc 2000300550 0 2017-07-05 18:01:18
  MAXS Module Ringermode org.projectmaxs.module.ringermode 2000300550 0 2017-07-05 18:01:18
  MAXS Module ContactsRead org.projectmaxs.module.contactsread 2000300550 0 2017-07-05 18:01:18
  MAXS Module FileRead org.projectmaxs.module.fileread 2000300550 0 2017-07-05 18:01:18
  ownCloud Beta com.owncloud.android.beta 20400000 0 2017-07-05 18:01:17
  Internet Radio community.peers.internetradio 2 0 2017-07-05 18:01:17
  OpenLauncher com.benny.openlauncher 24 0 2017-07-05 18:01:16
  Open Camera net.sourceforge.opencamera 50 0 2017-07-02 14:43:33
  NewPipe org.schabi.newpipe 36 0 2017-07-02 14:43:33
  Doda The Exploda com.quaap.dodatheexploda 2 0 2017-07-02 14:43:32
  Sudoku org.secuso.privacyfriendlysudoku 5 0 2017-07-01 18:34:02
  Shopping List privacyfriendlyshoppinglist.secuso.org.p.. 6 0 2017-07-01 18:34:02
  Tone Generator com.github.axet.tonegenerator 13 0 2017-07-01 18:34:01
  wallabag fr.gaulupeau.apps.InThePoche 105 0 2017-07-01 18:34:01
  Forecastie cz.martykan.forecastie 17 0 2017-07-01 18:34:01
  CosyDVR es.esy.CosyDVR 27 0 2017-07-01 18:34:01
  Lightning acr.browser.lightning 96 0 2017-07-01 18:34:00
  Power Ampache com.antoniotari.reactiveampacheapp 47 0 2017-07-01 18:34:00
  Simply Solid com.enrico.earthquake 15 0 2017-06-30 08:09:21
  SoundWaves org.bottiger.podcast 390 0 2017-06-28 15:42:04
  AnySoftKeyboard com.menny.android.anysoftkeyboard 2169 0 2017-06-28 15:42:03
  Share to Clipboard com.tengu.sharetoclipboard 16 0 2017-06-28 15:42:03
  OpenLauncher com.benny.openlauncher 23 0 2017-06-28 15:42:02
  CosyDVR es.esy.CosyDVR 26 0 2017-06-27 16:34:32
  Audinaut net.nullsum.audinaut 191 0 2017-06-27 16:34:32
  Lumicall org.lumicall.android 189 0 2017-06-27 16:34:32
  Sudoku org.secuso.privacyfriendlysudoku 4 0 2017-06-27 16:34:32
  JKU App org.voidsink.anewjkuapp 140057 0 2017-06-27 16:34:32
  Privacy Browser com.stoutner.privacybrowser.standard 24 0 2017-06-27 16:34:31
  Termux com.termux 53 0 2017-06-27 16:34:31
  SkyTube free.rm.skytube.oss 9 0 2017-06-27 16:34:31
  Music Player com.simplemobiletools.musicplayer 30 0 2017-06-27 16:34:31
  Lunary com.rehanced.lunary 18 0 2017-06-27 16:34:30
  SicMu Player souch.smp 14 1 2017-06-25 13:54:28
  Kwik DataPac (zar.aus) player.efis.data.zar.aus 3 0 2017-06-25 13:54:24
  Kwik DataPac (usa.can) player.efis.data.usa.can 3 0 2017-06-25 13:54:21
  Kwik DataPac (eur.rus) player.efis.data.eur.rus 1 0 2017-06-25 13:54:18
  μlogger net.fabiszewski.ulogger 106 0 2017-06-25 13:54:17
  Draw com.simplemobiletools.draw 19 0 2017-06-25 13:54:16
  BusyBox ru.meefik.busybox 29 0 2017-06-23 21:38:58
  Free Mobile Netstat org.pixmob.freemobile.netstat 63 0 2017-06-23 21:38:56
  My Position net.mypapit.mobile.myposition 12 0 2017-06-23 21:38:56
  Simpletask Cloudless nl.mpcjanssen.simpletask 3061 0 2017-06-23 21:38:56
  InventoryGUI Mobile nodom.darkfm.inventoryguimobile 2 0 2017-06-23 21:38:56
  GSM Location Service org.fitchfamily.android.gsmlocation 61 0 2017-06-23 21:38:56
  Movie DB org.notabug.lifeuser.moviedb 120 0 2017-06-23 21:38:56
  Rental Calc protect.rentalcalc 4 0 2017-06-23 21:38:56
  Weather notification ru.gelin.android.weather.notification 52 0 2017-06-23 21:38:56
  Fate Sheets link.standen.michael.fatesheets 8 0 2017-06-23 21:38:55
  FFUpdater de.marmaro.krt.ffupdater 21 0 2017-06-23 21:38:54
  Nextcloud News de.luhmer.owncloudnewsreader 120 0 2017-06-23 21:38:54
  Forecastie cz.martykan.forecastie 16 0 2017-06-23 21:38:53
  ZANavi com.zoffcc.applications.zanavi 257 0 2017-06-23 21:38:53
  SatStat com.vonglasow.michael.satstat 3020 0 2017-06-23 21:38:52
  Camera com.simplemobiletools.camera 43 0 2017-06-23 21:38:52
  Notes com.simplemobiletools.notes 36 0 2017-06-23 21:38:52
  Lyrically com.shkmishra.lyrically 14 0 2017-06-23 21:38:52
  WiFiAnalyzer com.vrem.wifianalyzer 30 0 2017-06-23 21:38:52
  Ringdroid com.ringdroid 20704 0 2017-06-23 21:38:52
  OpenShift com.digitalfishfun.openshift 1 0 2017-06-23 21:38:51
  Simple Weather com.a5corp.weather 578 0 2017-06-23 21:38:51
  F-Droid org.fdroid.fdroid 104050 0 2017-06-22 08:00:15
  crond it.faerb.crond 16 0 2017-06-22 08:00:15
  primitive ftpd org.primftpd 24 3 2017-06-22 08:00:15
  SicMu Player souch.smp 13 1 2017-06-22 08:00:15
  Auto Updater for Chromium com.dosse.chromiumautoupdater 17 0 2017-06-22 08:00:14
  NASA Images atm.nasaimages 3 0 2017-06-22 08:00:14
  Lightning acr.browser.lightning 95 0 2017-06-22 08:00:14
  PDF Creator de.baumann.pdfcreator 25 0 2017-06-22 08:00:14
  Telegram org.telegram.messenger 9605 0 2017-06-16 13:55:57
  Retroboy se.embargo.retroboy 44 0 2017-06-16 13:55:57
  TREZOR Manager io.trezor.app 9 0 2017-06-16 13:55:49
  Quit Smoking de.baumann.quitsmoking 22 0 2017-06-16 13:55:48
  Vanilla Lyrics Search com.kanedias.vanilla.lyrics 6 1 2017-06-16 13:55:47
  ArchWiki Viewer com.jtmcn.archwiki.viewer 12 0 2017-06-16 13:55:47
  Easy Open Link de.audioattack.openlink 14 0 2017-06-14 06:37:08
  crond it.faerb.crond 15 0 2017-06-14 06:37:08
  Signal Generator org.billthefarmer.siggen 111 1 2017-06-14 06:37:08
  Habits org.isoron.uhabits 32 0 2017-06-14 06:37:08
  Termux com.termux 52 0 2017-06-14 06:37:07
  Shattered Pixel Dungeon com.shatteredpixel.shatteredpixeldungeon 185 0 2017-06-14 06:37:07
  Sample com.enrico.sample 4 0 2017-06-14 06:37:06
  Battery Live com.enrico.earthquake.batterysimplysolid 13 0 2017-06-14 06:37:06
  BeeCount com.knirirr.beecount 118 0 2017-06-14 06:37:06
  Iven News Reader com.iven.lfflfeedreader 65 0 2017-06-14 06:37:06
  Cmus Remote com.joshtwigg.cmus.droid 8 0 2017-06-14 06:37:06
  Vanilla Tag Editor com.kanedias.vanilla.audiotag 10 0 2017-06-14 06:37:06
  Simply Solid com.enrico.earthquake 14 0 2017-06-14 06:37:06
  NASA Images atm.nasaimages 1 0 2017-06-14 06:37:06
  Suntimes com.forrestguice.suntimeswidget 11 0 2017-06-14 06:37:06
  Simple sms remote tranquvis.simplesmsremote 111 0 2017-06-11 15:21:48
  AFWall+ dev.ukanth.ufirewall 15950 0 2017-06-11 15:21:40
  RainTime nl.implode.regenalarm 40300 0 2017-06-11 15:21:40
  Nextcloud SMS fr.unix_experience.owncloud_sms 50 0 2017-06-11 15:21:39
  Kinolog git.rrgb.kinolog 12 0 2017-06-11 15:21:39
  Kinolog git.rrgb.kinolog 11 0 2017-06-11 15:21:39
  Internet Radio community.peers.internetradio 1 0 2017-06-11 15:21:37
  OGS com.ogsdroid 3 0 2017-06-11 15:21:37
  ArchWiki Viewer com.jtmcn.archwiki.viewer 8 0 2017-06-11 15:21:36
  Critical Velocity com.alaskalinuxuser.criticalvelocity 1 0 2017-06-11 15:21:36
  OpenAPK com.dkanada.openapk 32 0 2017-06-11 15:21:36
  Ghost Commander com.ghostsq.commander 326 0 2017-06-11 15:21:36
  Japanese Traditional Time com.aragaer.jtt 34 0 2017-06-11 15:21:36
  Velocity Calculator ch.jiikuy.velocitycalculator 4 0 2017-06-11 15:21:35
  Simple Weather com.a5corp.weather 568 0 2017-06-11 15:21:35
  DNS66 org.jak_linux.dns66 15 0 2017-06-07 12:40:46
  Acastus me.dbarnett.acastus 15 0 2017-06-07 12:40:46
  OCReader email.schaal.ocreader 39 0 2017-06-07 12:40:46
  Commons fr.free.nrw.commons 73 0 2017-06-07 12:40:45
  Fate Sheets link.standen.michael.fatesheets 7 0 2017-06-07 12:40:45
  Signature Spoofing Checker lanchon.sigspoof.checker 1 0 2017-06-07 12:40:45
  CrossWords org.eehouse.android.xw4 115 0 2017-06-07 12:40:45
  Minetest Mods com.rubenwardy.minetestmodmanager 18 0 2017-06-07 12:40:44
  Termux com.termux 51 0 2017-06-07 12:40:44
  Logcat com.tananaev.logcat 8 0 2017-06-07 12:40:44
  OneTwo com.nicue.onetwo 14 0 2017-06-07 12:40:44
  Polipoid com.polipoid 6 0 2017-06-07 12:40:44
  Tap 'n' Turn com.gabm.screenrotationcontrol 10 0 2017-06-07 12:40:43
  Nextcloud com.nextcloud.client 10040299 0 2017-06-07 12:40:43
  Open Camera net.sourceforge.opencamera 49 0 2017-06-05 12:05:05
  Taskbar com.farmerbb.taskbar 150 0 2017-06-05 12:05:04
  Stocks Widget com.github.premnirmal.tickerwidget 194 0 2017-06-05 12:05:04
  Vanilla Cover Fetcher com.kanedias.vanilla.coverfetch 4 0 2017-06-05 12:05:04
  AURdroid com.rascarlo.aurdroid 2 0 2017-06-05 12:05:04
  Notable Plus com.icechen1.notable.pro 44 0 2017-06-03 07:29:13
  ScreenCam com.orpheusdroid.screenrecorder 18 0 2017-06-03 07:29:13
  Simple sms remote tranquvis.simplesmsremote 110 0 2017-06-03 07:29:13
  Serval Mesh org.servalproject 2371 0 2017-06-03 07:29:13
  ReLaunchX com.gacode.relaunchx 100301000 0 2017-06-03 07:29:12
  F-Droid org.fdroid.fdroid 103250 0 2017-06-02 12:03:28
  DAPNET de.hampager.dapnetmobile 10 0 2017-06-02 12:03:28
  Logcat com.tananaev.logcat 7 0 2017-06-02 12:03:27
  SimpleStatsWidget de.simplestatswidget 103 0 2017-06-02 12:03:27
  SoundWaves org.bottiger.podcast 380 0 2017-05-31 23:28:26
  Transistor org.y20k.transistor 40 0 2017-05-31 23:28:26
  TrebleShot com.genonbeta.TrebleShot 45 0 2017-05-31 23:28:25
  ownCloud com.owncloud.android 20400000 0 2017-05-31 23:28:25
  OneTwo com.nicue.onetwo 12 0 2017-05-31 23:28:25
  Clock widget community.fairphone.clock 2 0 2017-05-31 07:26:20
  My Contacts community.fairphone.mycontacts 3 0 2017-05-31 07:26:19
  License community.peers.license 1 0 2017-05-31 07:26:19
  Velocity Calculator ch.jiikuy.velocitycalculator 3 0 2017-05-31 07:26:18
  CryptoPass krasilnikov.alexey.cryptopass 4 0 2017-05-30 07:12:00
  RainTime nl.implode.regenalarm 40200 0 2017-05-30 07:11:59
  SoundWaves org.bottiger.podcast 378 0 2017-05-30 07:11:59
  SyncPlayer io.github.powerinside.syncplay 16 0 2017-05-30 07:11:59
  AAT ch.bailu.aat 18 0 2017-05-30 07:11:58
  RunnerUp org.runnerup 14000057 0 2017-05-29 12:41:42
  Rental Calc protect.rentalcalc 3 0 2017-05-29 12:41:42
  Chromium SWE Updater chromiumupdater.bamless.com.chromiumsweu.. 6 0 2017-05-29 12:41:40
  BeHe Pro com.vlath.beheexplorer 20064 0 2017-05-29 12:41:40
  UART Smartwatch click.dummer.UartSmartwatch 31 0 2017-05-29 12:41:40
  BirthDay Droid com.tmendes.birthdaydroid 11 0 2017-05-29 12:41:40
  Gobandroid org.ligi.gobandroid_hd 258 0 2017-05-28 10:29:33
  Commons fr.free.nrw.commons 72 0 2017-05-28 10:29:32
  Duorem com.vadimfrolov.duorem 1 0 2017-05-28 10:29:31
  Who Has My Stuff? de.freewarepoint.whohasmystuff 31 0 2017-05-28 10:29:31
  PhotoPhase com.ruesga.android.wallpapers.photophase 1033 0 2017-05-28 10:29:30
  Democracy Droid com.workingagenda.democracydroid 33 0 2017-05-27 14:47:56
  DAPNET de.hampager.dapnetmobile 9 0 2017-05-27 14:47:56
  SlimSocial for Twitter it.rignanese.leo.slimtwitter 5 0 2017-05-27 14:47:56
  Diode in.shick.diode 20 0 2017-05-27 14:47:56
  UniPatcher org.emunix.unipatcher 140100 0 2017-05-27 14:47:56
  Tickmate de.smasi.tickmate 40 0 2017-05-27 14:47:56
  Gobandroid org.ligi.gobandroid_hd 257 0 2017-05-27 14:47:56
  Devinettes com.workingagenda.devinettes 3 0 2017-05-27 14:47:55
  Library com.cgogolin.library 31 0 2017-05-27 14:47:54
  TrebleShot com.genonbeta.TrebleShot 44 0 2017-05-27 14:47:54
  OneTwo com.nicue.onetwo 10 0 2017-05-27 14:47:54
  Ameixa LOS org.twelf.cmtheme 44 0 2017-05-25 21:42:10
  Etar ws.xsoh.etar 14 0 2017-05-25 21:42:10
  Who Has My Stuff? de.freewarepoint.whohasmystuff 29 0 2017-05-25 21:42:09
  CrossWords org.eehouse.android.xw4 114 0 2017-05-25 21:42:09
  Sound Recorder com.danielkim.soundrecorder 130 0 2017-05-25 21:42:08
  I2P net.i2p.android.router 4745237 1 2017-05-25 08:07:00
  Termux:Float com.termux.window 10 0 2017-05-25 08:06:59
  PDF Creator de.baumann.pdfcreator 24 0 2017-05-25 08:06:59
  openScale com.health.openscale 15 0 2017-05-25 08:06:58
  Ship Captain and Crew com.alaskalinuxuser.shipcaptainandcrew 8 1 2017-05-23 17:33:48
  MTG Familiar com.gelakinetic.mtgfam 48 0 2017-05-23 17:33:47
  Metronome com.arnaud.metronome 3 0 2017-05-23 17:33:47
  Pedometer de.j4velin.pedometer 151 0 2017-05-23 17:33:47
  Nominatim Geocoder Backend org.microg.nlp.backend.nominatim 20042 0 2017-05-23 00:14:07
  Survival Manual org.ligi.survivalmanual 39 0 2017-05-23 00:14:07
  SkyTube free.rm.skytube.oss 8 0 2017-05-23 00:14:06
  MouseApp fr.xtof54.mousetodon 3 0 2017-05-23 00:14:06
  PDF Creator de.baumann.pdfcreator 23 0 2017-05-23 00:14:05
  Power Ampache com.antoniotari.reactiveampacheapp 46 0 2017-05-23 00:14:04
  Uncle Finney's Poker com.liveplayergames.finneypoker 203 0 2017-05-23 00:14:04
  Chromium SWE Updater chromiumupdater.bamless.com.chromiumsweu.. 5 0 2017-05-23 00:14:03
  Calendar Trigger uk.co.yahoo.p1rpp.calendartrigger 4 0 2017-05-21 00:04:54
  Yubico Authenticator com.yubico.yubioath 34 0 2017-05-21 00:04:52
  Slideshow link.standen.michael.slideshow 22 0 2017-05-21 00:04:52
  wallabag fr.gaulupeau.apps.InThePoche 104 0 2017-05-21 00:04:52
  Vespucci (F-Droid) de.blau.android 98 0 2017-05-21 00:04:52
  FFUpdater de.marmaro.krt.ffupdater 20 0 2017-05-21 00:04:52
  KDE Connect org.kde.kdeconnect_tp 1630 0 2017-05-21 00:04:52
  Odyssey org.gateshipone.odyssey 17 0 2017-05-21 00:04:52
  PGPAuth org.lf_net.pgpunlocker 2017051001 0 2017-05-21 00:04:52
  MTA Fare Buster com.samsandberg.mtafarebuster 5 0 2017-05-21 00:04:51
  Sky Map com.google.android.stardroid 1480 0 2017-05-21 00:04:49
  Just Notes com.alaskalinuxuser.justnotes 9 0 2017-05-21 00:04:49
  NewsBlur com.newsblur 138 0 2017-05-21 00:04:49
  Just Craigslist com.alaskalinuxuser.justcraigslist 10 0 2017-05-21 00:04:48
  Port Authority com.aaronjwood.portauthority 49 0 2017-05-21 00:04:48
  Ameixa LOS org.twelf.cmtheme 43 0 2017-05-17 23:16:14
  Fate Sheets link.standen.michael.fatesheets 6 0 2017-05-17 23:16:13
  crond it.faerb.crond 13 0 2017-05-17 23:16:13
  EteSync com.etesync.syncadapter 15 0 2017-05-17 23:16:12
  Termux:Styling com.termux.styling 17 0 2017-05-17 23:16:12
  Android Token uk.co.bitethebullet.android.token 6 0 2017-05-15 22:40:36
  RedReader org.quantumbadger.redreader 78 0 2017-05-15 22:40:35
  AN2Linux kiwi.root.an2linuxclient 8 0 2017-05-15 22:40:34
  Wifi Remote Play net.sourceforge.wifiremoteplay 9 0 2017-05-15 22:40:34
  Movie DB org.notabug.lifeuser.moviedb 110 0 2017-05-15 22:40:34
  OI Shopping List org.openintents.shopping 100213 0 2017-05-15 22:40:34
  KISS launcher fr.neamar.kiss 96 0 2017-05-15 22:40:32
  Forró Lyrics de.gabbo.forro_lyrics 14 0 2017-05-15 22:40:32
  OpenVPN for Android de.blinkt.openvpn 147 0 2017-05-15 22:40:31
  Devinettes com.workingagenda.devinettes 2 0 2017-05-15 22:40:30
  Blue Minimal de.baumann.thema 43 0 2017-05-15 22:40:30
  Xabber Dev com.xabber.androiddev 348 0 2017-05-15 22:40:30
  Quit Smoking de.baumann.quitsmoking 21 0 2017-05-15 22:40:30
  K9 Material (unofficial) com.fsck.k9.material 24006 0 2017-05-15 22:40:25
  MTG Familiar com.gelakinetic.mtgfam 47 0 2017-05-15 22:40:25
  EteSync com.etesync.syncadapter 13 0 2017-05-15 22:40:24
  USB Device Info aws.apps.usbDeviceEnumerator 7 0 2017-05-15 22:40:22
  Port Authority com.aaronjwood.portauthority 48 0 2017-05-15 22:40:22
  F-Droid org.fdroid.fdroid 103150 0 2017-05-14 06:48:08
  Gobandroid org.ligi.gobandroid_hd 256 0 2017-05-14 06:48:07
  Bierverkostung de.retujo.bierverkostung 2 0 2017-05-14 06:48:06
  NextINpact (Unofficial) com.pcinpact 225 0 2017-05-14 06:48:06
  OpenAPK com.dkanada.openapk 31 0 2017-05-14 06:48:05
  MouseApp fr.xtof54.mousetodon 2 0 2017-05-12 17:08:01
  F-Droid Privileged Extension org.fdroid.fdroid.privileged 2050 0 2017-05-12 17:08:01
  Who Has My Stuff? de.freewarepoint.whohasmystuff 28 0 2017-05-12 17:07:59
  Content Provider Helper de.k3b.android.contentproviderhelper 4 0 2017-05-12 17:07:59
  MGit com.manichord.mgit 203 0 2017-05-12 17:07:57
  MGit com.manichord.mgit 202 0 2017-05-12 17:07:57
  K9 Material (unofficial) com.fsck.k9.material 24005 0 2017-05-12 17:07:57
  Disable Battery Warnings ca.cmetcalfe.xposed.disablebatterywarnin.. 1 0 2017-05-12 17:07:56
  OpenBikeSharing be.brunoparmentier.openbikesharing.app 23 0 2017-05-12 17:07:56
  EnigmAndroid de.vanitasvitae.enigmandroid 16 0 2017-05-10 21:41:12
  Notes it.niedermann.owncloud.notes 16 0 2017-05-10 21:41:11
  Seven de.baumann.sieben 35 0 2017-05-10 21:41:09
  Man Man com.adonai.manman 171 0 2017-05-10 21:41:07
  Goblim fr.mobdev.goblim 9 0 2017-05-09 21:30:19
  Audiometry Made Easy ut.ewh.audiometrytest 14 0 2017-05-09 07:08:47
  Crossword org.billthefarmer.crossword 104 0 2017-05-09 07:08:46
  Good Weather org.asdtm.goodweather 13 0 2017-05-09 07:08:46
  Crossword org.billthefarmer.crossword 103 0 2017-05-09 07:08:46
  NoteBuddy nl.yoerinijs.notebuddy 14 0 2017-05-09 07:08:46
  μlogger net.fabiszewski.ulogger 105 0 2017-05-09 07:08:46
  WhereYouGo menion.android.whereyougo 44 0 2017-05-09 07:08:46
  Password Generator org.secuso.privacyfriendlypasswordgenera.. 1 0 2017-05-09 07:08:46
  SyncOnWifi org.t2.synconwifi 2 0 2017-05-09 07:08:46
  Tri-Valley Buses io.github.whirish.tvbuses 10002 0 2017-05-09 07:08:45
  Nextcloud SMS fr.unix_experience.owncloud_sms 49 0 2017-05-09 07:08:44
  WTF‽ (The MirOS Project) de.naturalnet.mirwtfapp 8 0 2017-05-09 07:08:43
  Weather de.baumann.weather 40 0 2017-05-09 07:08:43
  Quit Smoking de.baumann.quitsmoking 20 0 2017-05-09 07:08:42
  Calendar Widget com.plusonelabs.calendar 408 0 2017-05-09 07:08:42
  Equate com.llamacorp.equate 6 0 2017-05-09 07:08:41
  Tusky com.keylesspalace.tusky 16 0 2017-05-09 07:08:41
  Swiftnotes com.moonpi.swiftnotes 11 0 2017-05-09 07:08:41
  Entrust IdentityGuard Unblocker ca.pr0ps.xposed.entrustunblocker 3 0 2017-05-09 07:08:40
  Just Notes com.alaskalinuxuser.justnotes 7 0 2017-05-09 07:08:40
  Just Craigslist com.alaskalinuxuser.justcraigslist 9 0 2017-05-09 07:08:40
  FOSDEM Companion be.digitalia.fosdem 700146 0 2017-05-09 07:08:39
  JKU App org.voidsink.anewjkuapp 140056 0 2017-05-06 07:22:31
  Tux Paint org.tuxpaint 8 0 2017-05-06 07:22:28
  F-Droid org.fdroid.fdroid 103050 0 2017-05-06 07:22:26
  Blue Minimal de.baumann.thema 42 0 2017-05-06 07:22:26
  A Photo Manager de.k3b.android.androFotoFinder 30 0 2017-05-06 07:22:26
  Android CUPS Print io.github.benoitduffez.cupsprint 9 0 2017-05-06 07:22:26
  Good Weather org.asdtm.goodweather 12 0 2017-05-06 07:22:26
  NoteBuddy nl.yoerinijs.notebuddy 13 0 2017-05-06 07:22:26
  Anecdote io.gresse.hugo.anecdote 23 0 2017-05-06 07:22:26
  pOT-Droid com.mde.potdroid 76 0 2017-05-06 07:22:24
  Tinfoil for Facebook com.danvelazco.fbwrapper 20170312 0 2017-05-06 07:22:24
  Tinfoil for Facebook com.danvelazco.fbwrapper 20170220 0 2017-05-06 07:22:24
  Pixiv for Muzei com.pixiv.muzei.pixivsource 20000 0 2017-05-06 07:22:24
  Man Man com.adonai.manman 170 0 2017-05-06 07:22:23
  Simple Reboot simple.reboot.com 14 0 2017-04-30 15:55:10
  OsmAnd~ net.osmand.plus 263 0 2017-04-30 15:55:02
  Lock name.seguri.android.lock 4 2 2017-04-30 15:55:00
  Lock name.seguri.android.lock 3 0 2017-04-30 15:55:00
  Muzei net.nurik.roman.muzei 23015 0 2017-04-30 15:55:00
  Lock name.seguri.android.lock 2 0 2017-04-30 15:55:00
  MouseApp fr.xtof54.mousetodon 1 0 2017-04-30 15:54:59
  WTF‽ (The MirOS Project) de.naturalnet.mirwtfapp 7 0 2017-04-30 15:54:58
  Vlille Checker com.vlille.checker 723 0 2017-04-30 15:54:56
  Wikipedia org.wikipedia 194 0 2017-04-27 07:40:21
  Notifications for Facebook org.surrel.facebooknotifications 13 0 2017-04-27 07:40:20
  Silence org.smssecure.smssecure 136 0 2017-04-27 07:40:19
  Indic Keyboard org.smc.inputmethod.indic 25 0 2017-04-27 07:40:18
  Kolab Notes org.kore.kolabnotes.android 92 0 2017-04-27 07:40:15
  Kontalk org.kontalk 226 0 2017-04-27 07:40:15
  Easy xkcd de.tap.easy_xkcd 138 0 2017-04-27 07:40:14
  SkyTube free.rm.skytube.oss 7 0 2017-04-27 07:40:14
  KISS launcher fr.neamar.kiss 95 0 2017-04-27 07:40:14
  Content Provider Helper de.k3b.android.contentproviderhelper 5 0 2017-04-27 07:40:13
  LnkShortener de.hirtenstrasse.michael.lnkshortener 7 0 2017-04-27 07:40:13
  File Manager com.simplemobiletools.filemanager 32 0 2017-04-27 07:40:13
  Just Craigslist com.alaskalinuxuser.justcraigslist 7 0 2017-04-27 07:40:11
  A2DP Volume a2dp.Vol 137 0 2017-04-27 07:40:10
  Terminightor org.schabi.terminightor 12 0 2017-04-23 21:29:48
  Kandroid in.andres.kandroid 14 0 2017-04-23 21:29:47
  Seven de.baumann.sieben 34 0 2017-04-23 21:29:47
  Logical Defence za.co.lukestonehm.logicaldefence 22 0 2017-04-23 16:32:22
  Dynamic Night Light de.quaddyservices.dynamicnightlight 2050 0 2017-04-23 16:32:14
  Goblim fr.mobdev.goblim 8 0 2017-04-23 16:32:14
  Slideshow link.standen.michael.slideshow 19 0 2017-04-23 16:32:14
  Minetest Mods com.rubenwardy.minetestmodmanager 17 0 2017-04-23 16:32:12
  Pedometer de.j4velin.pedometer 150 0 2017-04-23 16:32:12
  Pixiv for Muzei com.pixiv.muzei.pixivsource 10103 0 2017-04-23 16:32:12
  Pixiv for Muzei com.pixiv.muzei.pixivsource 10102 0 2017-04-23 16:32:12
  Save to Nextcloud Bookmarks com.tttdevs.stncbookmarks 2 0 2017-04-23 16:32:12
  K9 Material (unofficial) com.fsck.k9.material 24004 0 2017-04-23 16:32:05
  Overchan (fork) bus.chio.wishmaster 1001 0 2017-04-23 16:32:04
  Simple Weather com.a5corp.weather 481 0 2017-04-23 16:32:04
  F-Droid org.fdroid.fdroid 103003 0 2017-04-21 12:00:32
  CS Teaching Labs me.echeung.cdflabs 31 0 2017-04-19 07:05:38
  ANNO 1404 - Calculator de.ktran.anno1404warenrechner 1 0 2017-04-19 07:05:37
  FOSDEM Companion be.digitalia.fosdem 700145 0 2017-04-19 07:05:36
  Scrum Chatter ca.rmen.android.scrumchatter 10603 0 2017-04-19 07:05:36
  Paper Wallet ru.valle.btc 260 0 2017-04-17 21:51:08
  USB Mountr streetwalrus.usbmountr 4 0 2017-04-17 21:51:08
  Play Music Exporter re.jcg.playmusicexporter 110 0 2017-04-17 21:51:08
  Terminightor org.schabi.terminightor 11 0 2017-04-17 21:51:07
  SyncOnWifi org.t2.synconwifi 1 0 2017-04-17 21:51:07
  OpenManga org.nv95.openmanga 1102 0 2017-04-17 21:51:07
  AsteroidOS Sync org.asteroidos.sync 4 0 2017-04-17 21:51:04
  Tremotesf org.equeim.tremotesf 11 0 2017-04-17 21:51:04
  Simpletask Cloudless nl.mpcjanssen.simpletask 3056 0 2017-04-17 21:51:03
  Tremotesf org.equeim.tremotesf 10 0 2017-04-17 21:51:03
  Kolab Notes org.kore.kolabnotes.android 91 0 2017-04-17 21:51:03
  Kolab Notes org.kore.kolabnotes.android 90 0 2017-04-17 21:51:03
  AN2Linux kiwi.root.an2linuxclient 6 0 2017-04-17 21:51:02
  AN2Linux kiwi.root.an2linuxclient 7 0 2017-04-17 21:51:02
  Home Assistant io.homeassistant.android 2 0 2017-04-17 21:51:02
  EH17 Schedule name.myigel.fahrplan.eh17 54 0 2017-04-17 21:51:02
  Activity Launcher de.szalkowski.activitylauncher 10 0 2017-04-17 21:51:00
  Bierverkostung de.retujo.bierverkostung 1 0 2017-04-17 21:50:59
  SimpleStatsWidget de.simplestatswidget 101 0 2017-04-17 21:50:59
  Weather de.baumann.weather 39 0 2017-04-17 21:50:59
  Transportr de.grobox.liberario 48 0 2017-04-17 21:50:59
  HHS Moodle de.baumann.hhsmoodle 56 0 2017-04-17 21:50:57
  HHS Moodle de.baumann.hhsmoodle 55 0 2017-04-17 21:50:57
  Save to Nextcloud Bookmarks com.tttdevs.stncbookmarks 1 0 2017-04-17 21:50:56
  Logcat com.tananaev.logcat 6 0 2017-04-17 21:50:56
  Draw com.simplemobiletools.draw 18 0 2017-04-17 21:50:55
  Music Player com.simplemobiletools.musicplayer 29 0 2017-04-17 21:50:55
  Tiny Travel Tracker com.rareventure.gps2 72 0 2017-04-17 21:50:53
  ScreenCam com.orpheusdroid.screenrecorder 16 0 2017-04-17 21:50:50
  ScreenCam com.orpheusdroid.screenrecorder 15 0 2017-04-17 21:50:50
  Punchline Bingo com.pierreduchemin.punchlinebingo 6 0 2017-04-17 21:50:50
  Port Authority com.aaronjwood.portauthority 47 0 2017-04-17 21:50:48
  Suntimes com.forrestguice.suntimeswidget 10 0 2017-04-17 21:50:48
  BRouter btools.routingapp 19 0 2017-04-17 21:50:47
  BRouter btools.routingapp 18 0 2017-04-17 21:50:47
  Audinaut net.nullsum.audinaut 190 0 2017-04-15 10:07:22
  ForPDA org.softeg.slartus.forpdaplus 596 0 2017-04-15 10:07:21
  K-9 Mail com.fsck.k9 23270 0 2017-04-15 10:07:19
  Retro Text Editor click.dummer.textthing 192 0 2017-04-15 10:07:18
  PReVo uk.co.busydoingnothing.prevo 15 0 2017-04-13 11:04:39
  CommonsLab org.wikimedia.commons.wikimedia 1 0 2017-04-13 11:04:38
  And Bible net.bible.android.activity 224 0 2017-04-13 11:04:36
  Postcode net.tevp.postcode 5 0 2017-04-13 11:04:36
  EH17 Schedule name.myigel.fahrplan.eh17 53 0 2017-04-13 11:04:36
  F-Droid org.fdroid.fdroid 103002 0 2017-04-13 11:04:36
  Comfort Reader com.mschlauch.comfortreader 6 0 2017-04-13 11:04:34
  Periodical de.arnowelzel.android.periodical 31 0 2017-04-13 11:04:34
  Lexica com.serwylo.lexica 906 0 2017-04-13 11:04:34
  Termux:API com.termux.api 15 1 2017-04-13 11:04:34
  Library com.cgogolin.library 27 0 2017-04-13 11:04:32
  Ship Captain and Crew com.alaskalinuxuser.shipcaptainandcrew 7 2 2017-04-13 11:04:32
  Budget Watch protect.budgetwatch 14 0 2017-04-08 07:23:12
  F-Droid org.fdroid.fdroid 102350 0 2017-04-08 07:23:11
  BusTO it.reyboz.bustorino 22 0 2017-04-08 07:23:10
  SimpleStatsWidget de.simplestatswidget 102 0 2017-04-08 07:23:10
  Trycorder net.ddns.mlsoftlaberge.trycorder 520 0 2017-04-08 07:23:10
  meteroid de.chaosdorf.meteroid 27 0 2017-04-08 07:23:09
  Termux:API com.termux.api 14 0 2017-04-08 07:23:09
  Vespucci (F-Droid) de.blau.android 96 0 2017-04-08 07:23:09
  MinTube com.shapps.mintubeapp 3 0 2017-04-08 07:23:09
  QuickLyric com.geecko.QuickLyric 131 0 2017-04-08 07:23:05
  Overchan (fork) bus.chio.wishmaster 1000 0 2017-04-08 07:23:04
  Logical Defence za.co.lukestonehm.logicaldefence 21 0 2017-04-04 07:13:14
  Wikipedia org.wikipedia 191 0 2017-04-04 07:13:14
  Silence org.smssecure.smssecure 202 0 2017-04-04 07:13:12
  Silence org.smssecure.smssecure 135 0 2017-04-04 07:13:12
  Open Food openfoodfacts.github.scrachx.openfood 36 0 2017-04-04 07:13:11
  F-Droid org.fdroid.fdroid 103001 0 2017-04-04 07:13:11
  Open Pet Food Facts org.openpetfoodfacts.scanner 37 0 2017-04-04 07:13:11
  And Bible net.bible.android.activity 219 0 2017-04-04 07:13:10
  And Bible net.bible.android.activity 221 0 2017-04-04 07:13:10
  Kill Camera info.aario.killcamera 1 0 2017-04-04 07:13:10
  SNotepad info.aario.snotepad 2 0 2017-04-04 07:13:10
  OpenRedmine jp.redmine.redmineclient 53 0 2017-04-04 07:13:10
  WhereYouGo menion.android.whereyougo 43 0 2017-04-04 07:13:10
  Open Food openfoodfacts.github.scrachx.openfood 34 0 2017-04-04 07:13:10
  FreeShisen de.cwde.freeshisen 16 0 2017-04-04 07:13:09
  QuickLyric com.geecko.QuickLyric 129 0 2017-04-04 07:13:06
  AnySoftKeyboard - Portuguese Language Pa.. com.anysoftkeyboard.languagepack.portugu.. 100 0 2017-04-04 07:13:06
  Cache Cleaner com.frozendevs.cache.cleaner 26 0 2017-04-04 07:13:06
  QuickLyric com.geecko.QuickLyric 124 0 2017-04-04 07:13:06
  Vanilla Lyrics Search com.kanedias.vanilla.lyrics 5 0 2017-04-04 07:13:06
  Just Notes com.alaskalinuxuser.justnotes 3 0 2017-04-04 07:13:05
  AnySoftKeyboard - Danish Language Pack com.anysoftkeyboard.languagepack.danish 100 0 2017-04-04 07:13:05
  Flat Connectivity Icons ca.cmetcalfe.xposed.flatconnectivityicon.. 1 0 2017-04-04 07:13:04
  GLT Companion at.linuxtage.companion 700144 0 2017-04-04 07:13:04
  AnySoftKeyboard - Spanish Language Pack com.anysoftkeyboard.languagepack.spain 100 0 2017-04-01 13:48:36
  I2P net.i2p.android.router 4745236 1 2017-04-01 13:48:36
  Good Weather org.asdtm.goodweather 11 0 2017-03-30 12:15:30
  SNotepad info.aario.snotepad 1 0 2017-03-30 12:15:30
  yaxim org.yaxim.androidclient 31 0 2017-03-30 12:15:30
  WebApps com.tobykurien.webapps 17 0 2017-03-30 12:15:29
  KISS launcher fr.neamar.kiss 94 0 2017-03-30 12:15:29
  meteroid de.chaosdorf.meteroid 26 0 2017-03-30 12:15:29
  Unit Converter Ultimate com.physphil.android.unitconverterultima.. 50200 0 2017-03-30 12:15:28
  FLock ryey.flock 8 0 2017-03-29 09:31:19
  DSC Auto Rename ro.ciubex.dscautorename 90 0 2017-03-29 09:31:19
  Movie DB org.notabug.lifeuser.moviedb 1 0 2017-03-29 09:31:18
  Open Food openfoodfacts.github.scrachx.openfood 37 0 2017-03-29 09:31:07
  Currency org.billthefarmer.currency 108 0 2017-03-29 09:31:07
  Open Beauty openfoodfacts.github.scrachx.openbeauty 37 0 2017-03-29 09:31:07
  nusic info.schnatterer.nusic 20 0 2017-03-29 09:31:06
  RadioDroid net.programmierecke.radiodroid2 41 0 2017-03-29 09:31:06
  Doda The Exploda com.quaap.dodatheexploda 1 0 2017-03-29 09:31:04
  ForkHub jp.forkhub 1020800 0 2017-03-26 21:43:25
  Transdroid org.transdroid.full 228 0 2017-03-24 18:51:30
  Play Music Exporter re.jcg.playmusicexporter 109 0 2017-03-24 18:51:30
  Silence org.smssecure.smssecure 200 0 2017-03-24 18:51:29
  Silence org.smssecure.smssecure 201 0 2017-03-24 18:51:29
  LibreTorrent org.proninyaroslav.libretorrent 4 0 2017-03-24 18:51:29
  Clover org.floens.chan 20300 0 2017-03-24 18:51:28
  MyOwnNotes org.aykit.MyOwnNotes 11 0 2017-03-24 18:51:27
  Son of Hunky Punk org.andglkmod.hunkypunk 7 0 2017-03-24 18:51:27
  FOSSASIA 2017 org.fossasia.openevent 101 0 2017-03-24 18:51:27
  WhereYouGo menion.android.whereyougo 42 0 2017-03-24 18:51:26
  Notes it.niedermann.owncloud.notes 15 0 2017-03-24 18:51:26
  Easy xkcd de.tap.easy_xkcd 136 0 2017-03-24 18:51:23
  Silverfish com.launcher.silverfish 7 0 2017-03-24 18:51:22
  Ghost Commander com.ghostsq.commander 323 0 2017-03-24 18:51:22
  Unpopular Music Player de.kromke.andreas.unpopmusicplayerfree 9 0 2017-03-24 18:51:22
  FreeShisen de.cwde.freeshisen 14 0 2017-03-24 18:51:22
  getChromium com.anddevw.getchromium 20170318 0 2017-03-24 18:51:21
  BusTO it.reyboz.bustorino 21 0 2017-03-21 18:29:18
  Tanks of Freedom in.p1x.tanks_of_freedom 20 0 2017-03-21 18:29:17
  Elementary com.ultramegatech.ey 29 0 2017-03-21 18:29:14
  Kiwix org.kiwix.kiwixmobile 47 0 2017-03-21 12:42:08
  WhereAreTheEyes org.daylightingsociety.wherearetheeyes 5 0 2017-03-19 08:38:46
  Calendar Import-Export org.sufficientlysecure.ical 56 0 2017-03-19 08:38:46
  yaxim org.yaxim.androidclient 30 0 2017-03-19 08:38:45
  ForPDA org.softeg.slartus.forpdaplus 595 0 2017-03-19 08:38:45
  Transdrone org.transdroid.lite 228 0 2017-03-19 08:38:45
  Blue Minimal de.baumann.thema 41 0 2017-03-19 08:38:44
  Seven de.baumann.sieben 33 0 2017-03-19 08:38:44
  FreeShisen de.cwde.freeshisen 13 0 2017-03-19 08:38:44
  Screenshot sharer com.tomer.screenshotsharer 4 0 2017-03-19 08:38:42
  Silence org.smssecure.smssecure 134 0 2017-03-17 10:29:52
  Play Music Exporter re.jcg.playmusicexporter 108 0 2017-03-17 10:29:52
  yaxim org.yaxim.androidclient 29 0 2017-03-17 10:29:52
  Endoscope pl.hypeapp.endoscope 5 0 2017-03-17 10:29:52
  Shopping List privacyfriendlyshoppinglist.secuso.org.p.. 5 0 2017-03-17 10:29:52
  Net Monitor org.secuso.privacyfriendlynetmonitor 6 0 2017-03-17 10:29:51
  Pedometer org.secuso.privacyfriendlyactivitytracke.. 6 0 2017-03-17 10:29:51
  ForPDA org.softeg.slartus.forpdaplus 594 0 2017-03-17 10:29:51
  Net Monitor org.secuso.privacyfriendlynetmonitor 5 0 2017-03-17 10:29:51
  Auto Airplane Mode org.miamplayer.autoairplanemode 1 0 2017-03-17 10:29:50
  SexyTopo org.hwyl.sexytopo 14 1 2017-03-17 10:29:45
  Kiwix org.kiwix.kiwixmobile 45 0 2017-03-17 10:29:45
  Audinaut net.nullsum.audinaut 189 0 2017-03-17 10:29:44
  F-Droid org.fdroid.fdroid 102250 0 2017-03-17 10:29:44
  Tremotesf org.equeim.tremotesf 9 0 2017-03-17 10:29:44
  ConnectBot org.connectbot 19200 0 2017-03-17 10:29:44
  ForkHub jp.forkhub 1020700 0 2017-03-17 10:29:42
  Throughput de.mangelow.throughput 15 0 2017-03-17 10:29:41
  wallabag fr.gaulupeau.apps.InThePoche 32 0 2017-03-17 10:29:41
  Mensa-Guthaben de.yazo_games.mensaguthaben 15 0 2017-03-17 10:29:41
  Open Link With com.tasomaniac.openwith.floss 14003 0 2017-03-17 10:29:40
  ABCore com.greenaddress.abcore 55 0 2017-03-17 10:29:36
  Hourglass com.alaskalinuxuser.hourglass 4 0 2017-03-17 10:29:34
  PlanetCon com.dftec.planetcon 13 0 2017-03-17 10:29:34
  K-9 Mail com.fsck.k9 23260 0 2017-03-17 10:29:34
  getChromium com.anddevw.getchromium 20170314 0 2017-03-17 10:29:34
  Network Monitor ca.rmen.android.networkmonitor 12900 0 2017-03-17 10:29:31
  Rocket Guardian atm.rocketguardian 1 0 2017-03-17 10:29:30
  Bullseye x653.bullseye 2 0 2017-03-15 07:47:40
  Pollywog org.strawberryforum.pollywog 1 0 2017-03-15 07:47:39
  Silence org.smssecure.smssecure 133 0 2017-03-15 07:47:39
  Chibe com.jmstudios.chibe 4 0 2017-03-15 07:47:38
  SealNote com.twistedplane.sealnote 27 0 2017-03-15 07:47:38
  Trycorder net.ddns.mlsoftlaberge.trycorder 518 0 2017-03-13 08:54:05
  Omni Notes FOSS it.feio.android.omninotes.foss 233 0 2017-03-13 08:54:04
  Gift Card Guard protect.gift_card_guard 5 0 2017-03-12 14:51:25
  ownCloud com.owncloud.android 20300000 0 2017-03-12 14:51:23
  Xabber Dev com.xabber.androiddev 327 0 2017-03-12 14:51:23
  Silverfish com.launcher.silverfish 6 0 2017-03-12 14:51:21
  Hourglass com.alaskalinuxuser.hourglass 3 0 2017-03-12 14:51:20
  Ship Captain and Crew com.alaskalinuxuser.shipcaptainandcrew 6 3 2017-03-12 14:51:20
  Hourglass com.alaskalinuxuser.hourglass 2 0 2017-03-12 14:51:19
  Baby Sleep Sounds protect.babysleepsounds 9 0 2017-03-10 10:07:14
  Frozen Bubble org.jfedor.frozenbubble 54 0 2017-03-10 10:07:08
  SexyTopo org.hwyl.sexytopo 13 0 2017-03-10 10:07:08
  Open Event org.fossasia.openevent 83 0 2017-03-10 10:07:07
  Signal Generator org.billthefarmer.siggen 110 5 2017-03-10 10:07:07
  Trycorder net.ddns.mlsoftlaberge.trycorder 517 0 2017-03-10 10:07:06
  Throughput de.mangelow.throughput 12 0 2017-03-10 10:07:05
  Clock+ com.philliphsu.clock2 113 0 2017-03-10 10:07:03
  neo2 for AnySoftKeyboard com.anysoftkeyboard.languagepack.neo 8 0 2017-03-10 10:07:00
  Tusky com.keylesspalace.tusky 8 0 2017-03-10 10:07:00
  USB Mountr streetwalrus.usbmountr 3 0 2017-03-08 10:21:46
  Sensors2Pd org.sensors2.pd 1 0 2017-03-08 10:21:45
  Net Monitor org.secuso.privacyfriendlynetmonitor 4 0 2017-03-08 10:21:45
  OpenOrienteering Mapper org.openorienteering.mapper 608 0 2017-03-08 10:21:44
  ShellsMP org.jsl.shmp 1 0 2017-03-08 10:21:39
  Frozen Bubble org.jfedor.frozenbubble 53 0 2017-03-08 10:21:39
  IceCatMobile org.gnu.icecat 450710 0 2017-03-08 10:21:35
  IceCatMobile org.gnu.icecat 450700 0 2017-03-08 10:21:30
  TripSit me.tripsit.tripmobile 13 0 2017-03-08 10:21:29
  RadioDroid net.programmierecke.radiodroid2 39 0 2017-03-08 10:21:29
  SlimSocial for Facebook it.rignanese.leo.slimfacebook 46 0 2017-03-08 10:21:28
  Speedmeter fly.speedmeter.grub 24 0 2017-03-08 10:21:28
  PariDroid fr.ubordeaux.math.paridroid 13 0 2017-03-08 10:21:28
  ParkenDD de.jkliemann.parkendd 27 0 2017-03-08 10:21:27
  meteroid de.chaosdorf.meteroid 25 0 2017-03-08 10:21:27
  Chibe com.jmstudios.chibe 3 0 2017-03-08 10:21:26
  Equate com.llamacorp.equate 5 0 2017-03-08 10:21:25
  Bewegungsmelder de.arnefeil.bewegungsmelder 140630 0 2017-03-08 10:21:25
  AAT ch.bailu.aat 17 0 2017-03-08 10:21:24
  Sensors2OSC org.sensors2.osc 2 0 2017-03-03 17:04:06
  NFC Reader se.anyro.nfc_reader 15 1 2017-03-03 17:04:06
  debDroid de.mangelow.debdroid 5 0 2017-03-03 17:04:05
  Simpletask Cloudless nl.mpcjanssen.simpletask 3055 0 2017-03-03 17:04:05
  AnySoftKeyboard - Ελληνικό Γλωσσικό Πακέ.. com.anysoftkeyboard.languagepack.greek 200 0 2017-03-03 17:04:04
  AnySoftKeyboard - Tatar Language Pack com.anysoftkeyboard.languagepack.tatar 100 1 2017-03-03 17:04:04
  Clock+ com.philliphsu.clock2 112 0 2017-03-03 17:04:04
  Bewegungsmelder de.arnefeil.bewegungsmelder 140629 0 2017-03-03 17:04:04
  Port Knocker com.xargsgrep.portknocker 12 0 2017-03-03 17:04:04
  AnkiDroid com.ichi2.anki 20802300 0 2017-03-03 17:04:03
  SolitaireCG net.sourceforge.solitaire_cg 710 0 2017-03-02 09:23:42
  Starun atm.starun.game 121 0 2017-03-02 09:23:40
  primitive ftpd org.primftpd 23 1 2017-02-27 21:41:00
  Retro Text Editor click.dummer.textthing 191 0 2017-02-27 21:40:58
  NFC Reader se.anyro.nfc_reader 14 0 2017-02-26 21:43:38
  Silence org.smssecure.smssecure 131 0 2017-02-26 21:43:38
  Logical Defence za.co.lukestonehm.logicaldefence 20 0 2017-02-26 21:43:38
  Postcode net.tevp.postcode 4 0 2017-02-26 21:43:37
  Domodroid org.domogik.domodroid13 32 0 2017-02-26 21:43:37
  Odyssey org.gateshipone.odyssey 16 0 2017-02-26 21:43:37
  Sensors2OSC org.sensors2.osc 1 0 2017-02-26 21:43:37
  Silence org.smssecure.smssecure 130 0 2017-02-26 21:43:37
  SIP Switch eu.siebeck.sipswitch 11 0 2017-02-26 21:43:35
  DroidBeard com.rastating.droidbeard 1502 0 2017-02-26 21:43:35
  Vibora-Feed de.vibora.viborafeed 27 0 2017-02-26 21:43:35
  Dynamic Night Light de.quaddyservices.dynamicnightlight 2041 0 2017-02-26 21:43:35
  Note Crypt Pro com.notecryptpro 18 0 2017-02-26 21:43:35
  Bitcoin com.btcontract.wallet 47 0 2017-02-26 21:43:34
  AnySoftKeyboard - Russian Language Pack com.anysoftkeyboard.languagepack.russian.. 101 0 2017-02-26 21:43:34
  Chibe com.jmstudios.chibe 2 0 2017-02-26 21:43:34
  Suntimes com.forrestguice.suntimeswidget 9 0 2017-02-26 21:43:34
  Flame Haze Shana Animated Wallpaper com.miqote.shanawp 10 0 2017-02-26 21:43:34
  Etar ws.xsoh.etar 13 0 2017-02-24 09:50:09
  Food Scale Droid tmendes.com.analyticalbalancedroid 3 0 2017-02-24 09:50:08
  Bats! HIIT org.jfet.batsHIIT 6 0 2017-02-24 09:49:58
  MagiaDNI jpf.android.magiadni 10 0 2017-02-24 09:49:57
  SlimSocial for Facebook it.rignanese.leo.slimfacebook 45 0 2017-02-24 09:49:57
  DadosD com.tmendes.dadosd 4 0 2017-02-24 09:49:56
  BirthDay Droid com.tmendes.birthdaydroid 10 0 2017-02-24 09:49:56
  Open Link With com.tasomaniac.openwith.floss 14002 0 2017-02-24 09:49:56
  Vibora-Feed de.vibora.viborafeed 26 0 2017-02-24 09:49:56
  HackDash com.tasomaniac.dashclock.hackerspace.flo.. 13000 0 2017-02-24 09:49:55
  Food Restrictions br.com.frs.foodrestrictions 2 0 2017-02-24 09:49:53
  Bullseye x653.bullseye 1 0 2017-02-20 17:11:44
  Ameixa CM org.twelf.cmtheme 42 0 2017-02-20 17:11:44
  Check Network org.zephyrsoft.checknetwork 5 0 2017-02-20 17:11:44
  Termux:API com.termux.api 13 0 2017-02-20 17:11:42
  BeHe ExploreR com.vlath.beheexplorer 20051 0 2017-02-20 17:11:42
  Forró Lyrics de.gabbo.forro_lyrics 13 0 2017-02-20 17:11:42
  Etar ws.xsoh.etar 12 0 2017-02-20 06:57:18
  Balance de.mangelow.balance 3 0 2017-02-20 06:57:16
  debDroid de.mangelow.debdroid 4 0 2017-02-20 06:57:16
  Silence org.smssecure.smssecure 129 0 2017-02-20 06:57:16
  Face Slim org.indywidualni.fblite 49 0 2017-02-20 06:57:16
  SyncWifi de.mangelow.syncwifi 17 0 2017-02-20 06:57:15
  Throughput de.mangelow.throughput 9 0 2017-02-20 06:57:15
  Nounours and friends ca.rmen.nounours 345 0 2017-02-20 06:57:14
  Ring cx.ring 65 0 2017-02-20 06:57:14
  Scrum Chatter ca.rmen.android.scrumchatter 10602 0 2017-02-20 06:57:13
  UART Smartwatch click.dummer.UartSmartwatch 30 0 2017-02-20 06:57:13
  Note Crypt Pro com.notecryptpro 17 0 2017-02-20 06:57:13
  Starun atm.starun.game 120 0 2017-02-20 06:57:12
  Track Work Time org.zephyrsoft.trackworktime 23 0 2017-02-18 23:45:18
  OI Notepad org.openintents.notepad 10084 0 2017-02-18 23:45:17
  Track Work Time org.zephyrsoft.trackworktime 22 0 2017-02-18 23:45:17
  OI Flashlight org.openintents.flashlight 10015 0 2017-02-18 23:45:17
  Simple Reboot simple.reboot.com 13 0 2017-02-18 23:45:17
  Impress Remote org.libreoffice.impressremote 19 0 2017-02-18 23:45:16
  sg net.mabako.steamgifts 1005508 0 2017-02-18 23:45:15
  PixelKnot info.guardianproject.pixelknot 101 0 2017-02-18 23:45:14
  Auto Updater for Chromium com.dosse.chromiumautoupdater 16 0 2017-02-18 23:45:12
  Punchline Bingo com.pierreduchemin.punchlinebingo 5 0 2017-02-18 23:45:12
  Persian Calendar com.byagowi.persiancalendar 522 0 2017-02-18 23:45:11
  HexColorTime Wallpaper com.eneko.hexcolortimewallpaper 2 0 2017-02-18 23:45:11
  AnySoftKeyboard - Russian Language Pack com.anysoftkeyboard.languagepack.russian.. 100 0 2017-02-18 23:45:10
  AnySoftKeyboard - Ukrainian Language Pac.. com.anysoftkeyboard.languagepack.ukraini.. 100 0 2017-02-18 23:45:10
  Lightning acr.browser.lightning 91 0 2017-02-18 23:45:10
  ConnectBot org.connectbot 19100 0 2017-02-14 14:40:10
  Oscilloscope org.billthefarmer.scope 112 0 2017-02-14 14:40:09
  Tuner org.billthefarmer.tuner 116 0 2017-02-14 14:40:09
  Omni Notes FOSS it.feio.android.omninotes.foss 230 9 2017-02-14 14:40:09
  Kontalk org.kontalk 220 0 2017-02-14 14:40:09
  Ghost Commander com.ghostsq.commander 322 0 2017-02-13 13:53:54
  CuprumPDF org.ninthfloor.copperpdf 4 0 2017-02-12 20:11:43
  CopperPDF org.ninthfloor.copperpdf 3 0 2017-02-12 20:11:43
  Dynamic Night Light de.quaddyservices.dynamicnightlight 2037 0 2017-02-12 20:11:40
  SlideItLoud de.mangelow.slideitloud 7 0 2017-02-12 20:11:39
  WebApps com.tobykurien.webapps 15 0 2017-02-12 20:11:39
  Enhancement com.primokorn.enhancement 20 0 2017-02-12 20:11:38
  Hayai Launcher com.hayaisoftware.launcher 10405 0 2017-02-12 20:11:37
  AnySoftKeyboard - Finnish Language Pack com.menny.anysoftkeyboard.finnish 201 0 2017-02-12 20:11:37
  AnySoftKeyboard - Latvian Language Pack com.anysoftkeyboard.languagepack.latvian 100 0 2017-02-12 20:11:36
  AnySoftKeyboard - Slovene Language Pack com.anysoftkeyboard.languagepack.slovene 100 0 2017-02-12 20:11:36
  AnySoftKeyboard - Italian Language Pack com.anysoftkeyboard.languagepack.italian 100 0 2017-02-12 20:11:36
  SolitaireCG net.sourceforge.solitaire_cg 705 0 2017-02-10 14:59:03
  Step and Height counter grmpl.mk.stepandheightcounter 5 0 2017-02-10 14:59:03
  LnkShortener de.hirtenstrasse.michael.lnkshortener 5 0 2017-02-10 14:59:02
  Vuze Remote com.vuze.android.remote 82 0 2017-02-10 14:59:01
  Nominatim Geocoder Backend org.microg.nlp.backend.nominatim 20039 0 2017-02-09 13:54:25
  Vanilla Lyrics Search com.kanedias.vanilla.lyrics 4 0 2017-02-09 13:54:24
  AnySoftKeyboard - Basque com.anysoftkeyboard.languagepack.basque 1 0 2017-02-09 13:54:24
  AnyMemo org.liberty.android.fantastischmemo 223 0 2017-02-08 14:53:18
  Nori io.github.tjg1.nori 9 0 2017-02-08 14:53:17
  SolitaireCG net.sourceforge.solitaire_cg 700 0 2017-02-08 14:53:17
  PinDroid com.pindroid 69 0 2017-02-08 14:53:16
  Share via HTTP com.MarcosDiez.shareviahttp 25 0 2017-02-08 14:53:13
  AnySoftKeyboard - Norwegian Language Pac.. com.anysoftkeyboard.languagepack.norwegi.. 100 0 2017-02-08 14:53:12
  AnySoftKeyboard - Norwegian Language Pac.. com.anysoftkeyboard.languagepack.norwegi.. 101 0 2017-02-08 14:53:12
  AnySoftKeyboard - German Language Pack com.anysoftkeyboard.languagepack.german 103 0 2017-02-08 14:53:11
  Nominatim Geocoder Backend org.microg.nlp.backend.nominatim 20038 0 2017-02-07 15:27:28
  CopperPDF org.ninthfloor.copperpdf 2 0 2017-02-07 15:27:28
  LnkShortener de.hirtenstrasse.michael.lnkshortener 4 0 2017-02-07 15:27:27
  AnkiDroid com.ichi2.anki 20801300 0 2017-02-07 15:27:26
  Location Share ca.cmetcalfe.locationshare 3 0 2017-02-07 15:27:26
  Auto Updater for Chromium com.dosse.chromiumautoupdater 15 0 2017-02-07 15:27:26
  HexColorTime Wallpaper com.eneko.hexcolortimewallpaper 1 0 2017-02-07 15:27:26
  Accordion org.billthefarmer.accordion 111 0 2017-02-06 16:30:18
  Giggity net.gaast.giggity 67 0 2017-02-06 16:30:16
  Eylca mbmb5.lumixextendedcontrolapp 1 0 2017-02-06 16:30:16
  Quasseldroid com.iskrembilen.quasseldroid 160 0 2017-02-06 16:30:13
  Location Share ca.cmetcalfe.locationshare 2 0 2017-02-06 16:30:12
  Blokish org.scoutant.blokish 19 0 2017-02-05 18:57:08
  Melodeon org.billthefarmer.melodeon 109 0 2017-02-05 18:57:07
  Transportr de.grobox.liberario 47 0 2017-02-05 18:57:05
  Share via HTTP com.MarcosDiez.shareviahttp 24 0 2017-02-05 18:57:04
  AnySoftKeyboard - Swedish Language Pack com.anysoftkeyboard.languagepack.swedish 103 0 2017-02-05 18:57:04
  Ring cx.ring 64 0 2017-02-05 18:57:04
  DroidFish org.petero.droidfish 75 0 2017-02-03 14:31:04
  Screens uk.co.keepawayfromfire.screens 8 0 2017-02-02 15:36:31
  ParkenDD de.jkliemann.parkendd 26 0 2017-02-02 15:36:30
  Open Note Scanner com.todobom.opennotescanner 28 0 2017-02-02 15:36:28
  FOSDEM Companion be.digitalia.fosdem 700144 0 2017-02-02 15:36:26
  NHBooks moe.feng.nhentai 35 0 2017-01-31 16:26:31
  sg net.mabako.steamgifts 1005506 0 2017-01-31 16:26:31
  AsciiCam com.dozingcatsoftware.asciicam 11 0 2017-01-31 16:26:30
  Classic ca.farrelltonsolar.classic 250 0 2017-01-31 16:26:29
  Shorty org.billthefarmer.shorty 107 0 2017-01-30 14:53:55
  Prism org.us.andriod 4 0 2017-01-30 14:53:55
  Rabbit Escape net.artificialworlds.rabbitescape 103 0 2017-01-30 14:53:54
  Screens uk.co.keepawayfromfire.screens 7 0 2017-01-29 22:08:22
  Screens uk.co.keepawayfromfire.screens 6 0 2017-01-29 22:08:22
  oandbackup dk.jens.backup 19 0 2017-01-29 22:08:21
  Freebloks de.saschahlusiak.freebloks 70 0 2017-01-29 22:08:20
  Ring cx.ring 63 0 2017-01-29 22:08:19
  Open Flood com.gunshippenguin.openflood 12 2 2017-01-29 22:08:18
  Prayer Times com.metinkale.prayer 174 0 2017-01-29 22:08:18
  Nextcloud com.nextcloud.client 10040199 0 2017-01-29 22:08:18
  Rick App click.dummer.rickapp 20 0 2017-01-29 22:08:17
  Persian Calendar com.byagowi.persiancalendar 521 0 2017-01-29 22:08:17
  Changelog org.polaric.cyanogenmodchangelog 66 0 2017-01-27 13:27:20
  AnySoftKeyboard - German Language Pack com.anysoftkeyboard.languagepack.german 100 0 2017-01-27 13:27:12
  World Weather com.haringeymobile.ukweather 27 0 2017-01-27 13:27:12
  AnySoftKeyboard - Hebrew Language Pack com.anysoftkeyboard.languagepack.hebrew 102 0 2017-01-25 15:02:38
  Inventum org.asdtm.fas 3 0 2017-01-25 15:02:38
  SyncOrg com.coste.syncorg 10 0 2017-01-25 15:02:37
  BeHe ExploreR com.vlath.beheexplorer 20002 0 2017-01-24 14:05:42
  Kontalk org.kontalk 219 0 2017-01-24 14:05:42
  Kontalk org.kontalk 218 0 2017-01-24 14:05:42
  Get Foreground Activity name.seguri.android.getforegroundactivit.. 3 0 2017-01-24 14:05:41
  Currency org.billthefarmer.currency 107 0 2017-01-24 14:05:41
  GTFSOffline com.wbrenna.gtfsoffline 10 0 2017-01-24 14:05:41
  DoliDroid com.nltechno.dolidroidpro 28 0 2017-01-24 14:05:37
  Library com.cgogolin.library 24 0 2017-01-24 14:05:36
  Nounours and friends ca.rmen.nounours 344 0 2017-01-24 14:05:36
  Verbiste Android com.allansimon.verbisteandroid 1 0 2017-01-24 14:05:36
  Oscilloscope org.billthefarmer.scope 111 0 2017-01-22 20:13:25
  Tuner org.billthefarmer.tuner 115 0 2017-01-22 20:13:25
  ApkTrack fr.kwiatkowski.ApkTrack 19 0 2017-01-22 20:13:24
  Caffeine Tile info.zwanenburg.caffeinetile 4 0 2017-01-22 20:13:24
  TV KILL com.redirectapps.tvkill 20 0 2017-01-22 20:13:20
  Reddinator au.com.wallaceit.reddinator 62 0 2017-01-22 20:13:19
  oandbackup dk.jens.backup 18 0 2017-01-20 13:22:11
  Starun atm.starun.game 101 0 2017-01-20 13:22:09
  UnifiedNlp org.microg.nlp 20187 0 2017-01-17 13:57:38
  Night Screen info.papdt.blackblub 6 0 2017-01-17 13:57:37
  Giggity net.gaast.giggity 66 0 2017-01-17 13:57:37
  Night Screen info.papdt.blackblub 9 0 2017-01-17 13:57:37
  NHBooks moe.feng.nhentai 34 0 2017-01-17 13:57:37
  Diode in.shick.diode 19 0 2017-01-17 13:57:37
  Thugaim info.meoblast001.thugaim 2 0 2017-01-17 13:57:37
  Lyrically com.shkmishra.lyrically 13 0 2017-01-17 13:57:34
  AnkiDroid com.ichi2.anki 20800300 0 2017-01-17 13:57:34
  ExprEval com.github.gianlucanitti.expreval 3 0 2017-01-17 13:57:34
  Elementary com.ultramegatech.ey 28 0 2017-01-17 13:57:34
  UnifiedNlp com.google.android.location 20187 0 2017-01-17 13:57:33
  UnifiedNlp com.google.android.gms 20187 0 2017-01-17 13:57:33
  Screen Shift com.sagar.screenshift2 4 0 2017-01-17 13:57:33
  A2DP Volume a2dp.Vol 135 0 2017-01-17 13:57:32
  Alarm Klock com.angrydoughnuts.android.alarmclock 15 0 2017-01-17 13:57:32
  TopoSuite ch.hgdev.toposuite 69 0 2017-01-17 13:57:32
  Torrent Search (by Transdroid) org.transdroid.search 30 0 2017-01-14 22:17:36
  Inventum org.asdtm.fas 2 0 2017-01-14 22:17:35
  Shorty org.billthefarmer.shorty 106 0 2017-01-14 22:17:35
  Inbox Pager net.inbox.pager 5 0 2017-01-14 22:17:34
  Flexible Wallpaper daniel_32.flexiblewallpaper 2 0 2017-01-14 22:17:33
  Prayer Times com.metinkale.prayer 173 0 2017-01-14 22:17:32
  D00R com.hasi.hasid00r 3 0 2017-01-14 22:17:32
  ExprEval com.github.gianlucanitti.expreval 2 0 2017-01-14 22:17:32
  TouchDetector com.msapps.touchdetector 1 0 2017-01-14 22:17:32
  Pjuu com.pjuu.otterdroid 7 0 2017-01-13 19:09:51
  L'angolo nerd it.langolonerd.app 1 0 2017-01-13 19:09:51
  BlitzMail de.grobox.blitzmail 12 1 2017-01-11 16:51:04
  Crosswords org.eehouse.android.xw4 111 0 2017-01-11 16:51:04
  k4android de.k4ever.k4android 10 0 2017-01-11 16:51:03
  Step and Height counter grmpl.mk.stepandheightcounter 4 0 2017-01-11 16:51:03
  Little Sir Echo com.cityfreqs.littlesirecho 4 0 2017-01-11 16:51:02
  Hangar ca.mimic.apphangar 75 0 2017-01-11 16:51:02
  Forró Lyrics de.gabbo.forro_lyrics 12 0 2017-01-11 16:51:02
  Movim com.movim.movim 8 0 2017-01-11 16:51:02
  Metrodroid au.id.micolous.farebot 30 0 2017-01-11 16:51:01
  Port Knocker com.xargsgrep.portknocker 10 0 2017-01-10 14:31:10
  k4android de.k4ever.k4android 9 0 2017-01-10 14:31:09
  Primary com.quaap.primary 3 0 2017-01-10 14:31:08
  Nextcloud com.nextcloud.client 10040102 0 2017-01-10 14:31:07
  Padland com.mikifus.padland 12 0 2017-01-10 14:31:07
  Iven News Reader com.iven.lfflfeedreader 63 0 2017-01-10 14:31:06
  StageFever com.fr3ts0n.stagefever 10009 0 2017-01-10 14:31:06
  Vector Pinball com.dozingcatsoftware.bouncy 21 0 2017-01-10 14:31:05
  Simple IRC tk.jordynsmediagroup.simpleirc.fdroid 18 6 2017-01-07 00:11:42
  Simple IRC tk.jordynsmediagroup.simpleirc.fdroid 19 14 2017-01-07 00:11:42
  Akhyou! dulleh.akhyou.fdroid 5 0 2017-01-07 00:11:40
  BusTO it.reyboz.bustorino 20 0 2017-01-07 00:11:40
  RunnerUp org.runnerup 14000056 0 2017-01-07 00:11:40
  Mather org.icasdri.mather 300 0 2017-01-07 00:11:40
  MIDICtrl moe.martini.midictrl 1 0 2017-01-07 00:11:39
  Puzzles name.boyle.chris.sgtpuzzles 115 0 2017-01-07 00:11:39
  Reddinator au.com.wallaceit.reddinator 61 0 2017-01-07 00:11:38
  World Weather com.haringeymobile.ukweather 26 0 2017-01-07 00:11:38
  SyncOrg com.coste.syncorg 8 0 2017-01-07 00:11:37
  Sample com.enrico.sample 3 0 2017-01-07 00:11:37
  OpenOrienteering Mapper org.openorienteering.mapper 607 0 2017-01-04 22:33:27
  DroidFish org.petero.droidfish 74 0 2017-01-04 22:33:27
  AnyMemo org.liberty.android.fantastischmemo 222 0 2017-01-04 22:33:27
  Primary com.quaap.primary 2 0 2017-01-04 22:33:23
  Battery Live com.enrico.earthquake.batterysimplysolid 12 0 2017-01-04 22:33:22
  Simple sms remote tranquvis.simplesmsremote 100 0 2017-01-02 09:31:06
  Kontalk org.kontalk 217 0 2017-01-02 09:31:05
  Derandom org.asnelt.derandom 10 0 2017-01-02 09:31:04
  Boilr mobi.boilr.boilr 9 0 2017-01-02 09:31:04
  Step and Height counter grmpl.mk.stepandheightcounter 3 0 2017-01-02 09:31:04
  Bienvenido a Internet org.bienvenidoainternet.app 12 0 2017-01-02 09:31:04
  Search Based Launcher com.vackosar.searchbasedlauncher 59 0 2017-01-02 09:31:02
  Sugarizer org.olpc_france.sugarizer 800 0 2016-12-30 23:13:45
  Minetest net.minetest.minetest 16 0 2016-12-30 23:13:43
  Memento github.yaa110.memento 2 0 2016-12-30 23:13:43
  Termux:Task com.termux.tasker 1 0 2016-12-30 23:13:42
  sample com.cleveroad.sample 1 0 2016-12-30 23:13:41
  StageFever com.fr3ts0n.stagefever 10008 0 2016-12-30 23:13:41
  Sample com.enrico.sample 2 0 2016-12-30 23:13:41
  Classic ca.farrelltonsolar.classic 247 0 2016-12-30 23:13:40
  Battery Live com.enrico.earthquake.batterysimplysolid 11 0 2016-12-28 23:04:46
  33C3 Schedule org.ligi.fahrplan 50 0 2016-12-28 23:04:46
  OpenGapps Downloader org.opengappsdownloader 8 0 2016-12-28 23:04:46
  KIBA org.schabi.kiba 1 0 2016-12-28 23:04:46
  Termux:Widget com.termux.widget 7 0 2016-12-28 23:04:45
  33c3 Wifi Setup tf.nox.wifisetup 20160804 0 2016-12-27 22:11:06
  DO Swimmer com.yassirh.digitalocean 31 0 2016-12-27 22:11:06
  Lesser Pad org.pulpdust.lesserpad 38 0 2016-12-27 22:11:05
  Frozen Bubble org.jfedor.frozenbubble 51 0 2016-12-27 22:11:05
  Elementary com.ultramegatech.ey 27 0 2016-12-27 22:11:04
  QR Scanner com.secuso.privacyFriendlyCodeScanner 9 0 2016-12-27 22:11:04
  33C3 Schedule org.ligi.fahrplan 49 0 2016-12-26 22:22:18
  WLANScanner org.bitbatzen.wlanscanner 1 0 2016-12-26 22:22:18
  Thugaim info.meoblast001.thugaim 1 0 2016-12-26 22:22:17
  LinCal felixwiemuth.lincal 9 0 2016-12-26 22:22:17
  Debian Kit org.dyndns.sven_ola.debian_kit 6 0 2016-12-26 22:22:17
  BasketBuild Downloader org.basketbuilddownloader 11 0 2016-12-26 22:22:17
  Teleposter telegra.ph 7 0 2016-12-26 22:22:17
  Transportr de.grobox.liberario 45 0 2016-12-26 22:22:16
  TripleCamel com.ebaschiera.triplecamel 8 0 2016-12-26 22:22:14
  Cat Avatar Generator com.agateau.catgenerator 2 0 2016-12-26 22:22:14
  33c3 SCR org.ligi.scr 31 0 2016-12-25 14:37:54
  33C3 Schedule org.ligi.fahrplan 47 0 2016-12-25 14:37:54
  CamCov ryey.camcov 9 0 2016-12-25 14:37:54
  Pedometer org.secuso.privacyfriendlyactivitytracke.. 5 0 2016-12-25 14:37:54
  Smarter Wi-Fi Manager net.kismetwireless.android.smarterwifima.. 85 0 2016-12-25 14:37:53
  c3nav de.c3nav.droid 4 0 2016-12-25 14:37:52
  ForkHub jp.forkhub 1020600 0 2016-12-25 14:37:52
  QR Scanner com.secuso.privacyFriendlyCodeScanner 8 0 2016-12-25 14:37:51
  ownCloud News de.luhmer.owncloudnewsreader 115 0 2016-12-25 14:37:51
  GCstar Viewer com.gcstar.viewer 14 0 2016-12-25 14:37:49
  SyncOrg com.coste.syncorg 7 0 2016-12-25 14:37:49
  Reddinator au.com.wallaceit.reddinator 60 0 2016-12-25 14:37:49
  Ruler org.secuso.privacyfriendlyruler 3 0 2016-12-23 16:51:38
  Rick App click.dummer.rickapp 14 0 2016-12-23 16:51:35
  Simple Dilbert com.mareksebera.simpledilbert 37 0 2016-12-23 16:51:35
  Anecdote io.gresse.hugo.anecdote 22 0 2016-12-22 16:32:00
  c3nav de.c3nav.droid 3 0 2016-12-22 16:32:00
  Domodroid org.domogik.domodroid13 27 0 2016-12-22 16:32:00
  Simple IRC tk.jordynsmediagroup.simpleirc.fdroid 16 17 2016-12-22 16:32:00
  Periodical de.arnowelzel.android.periodical 30 0 2016-12-22 16:31:59
  Flexible Wallpaper daniel_32.flexiblewallpaper 1 0 2016-12-22 16:31:59
  Ruler org.secuso.privacyfriendlyruler 2 0 2016-12-21 13:04:29
  Computational Demonology com.quaap.computationaldemonology 1 0 2016-12-21 13:04:28
  ExprEval com.github.gianlucanitti.expreval 1 0 2016-12-21 13:04:27
  DoliDroid com.nltechno.dolidroidpro 27 0 2016-12-21 13:04:27
  تودویر atitel.com.todoer 1 0 2016-12-21 13:04:22
  World Clock & Weather ch.corten.aha.worldclock 46 0 2016-12-21 13:04:22
  Rick App click.dummer.rickapp 13 0 2016-12-21 13:04:22
  Anecdote io.gresse.hugo.anecdote 21 0 2016-12-19 08:49:18
  Silectric net.alaindonesia.silectric 1220161217 0 2016-12-19 08:49:18
  TSCH_BYL de.drhoffmannsoftware 7 0 2016-12-19 08:49:18
  TripleCamel com.ebaschiera.triplecamel 7 0 2016-12-19 08:49:17
  Tanks of Freedom in.p1x.tanks_of_freedom 18 0 2016-12-17 09:31:59
  Smarter Wi-Fi Manager net.kismetwireless.android.smarterwifima.. 84 0 2016-12-17 09:31:59
  AntennaPod de.danoeh.antennapod 1060203 0 2016-12-17 09:31:57
  GLT Companion at.linuxtage.companion 700138 0 2016-12-17 09:31:55
  Pedometer org.secuso.privacyfriendlyactivitytracke.. 4 0 2016-12-15 23:30:54
  Notes org.secuso.privacyfriendlynotes 2 0 2016-12-15 23:30:54
  Hacker's Keyboard org.pocketworkstation.pckeyboard 1039003 0 2016-12-15 23:30:54
  Kontalk org.kontalk 216 0 2016-12-15 23:30:53
  StageFever com.fr3ts0n.stagefever 10007 0 2016-12-15 23:30:50
  Beacon Locator com.samebits.beacon.locator 111 0 2016-12-15 23:30:50
  Missed Notifications Reminder com.app.missednotificationsreminder 1401011100 0 2016-12-15 23:30:49
  TSCH_BYL com.drhoffmannsoftware 7 0 2016-12-15 23:30:49
  Ruler org.secuso.privacyfriendlyruler 1 0 2016-12-14 18:32:57
  LibreTorrent org.proninyaroslav.libretorrent 3 0 2016-12-14 18:32:57
  GeoKrety Logger pl.nkg.geokrety 47 0 2016-12-14 18:32:57
  JKU App org.voidsink.anewjkuapp 140053 0 2016-12-14 18:32:57
  Material Tea Timer org.ligi.materialteatimer 13 0 2016-12-14 18:32:44
  FAST App Search Tool org.ligi.fast 66 0 2016-12-14 18:32:43
  Caffeine Tile info.zwanenburg.caffeinetile 3 0 2016-12-14 18:32:42
  Caffeine Tile info.zwanenburg.caffeinetile 2 0 2016-12-14 18:32:42
  Memento github.yaa110.memento 1 0 2016-12-14 18:32:41
  ZANavi com.zoffcc.applications.zanavi 256 0 2016-12-14 18:32:38
  NetInfo Widget com.ultrafunk.network_info 30 0 2016-12-14 18:32:38
  Torchlight com.secuso.torchlight2 4 0 2016-12-14 18:32:37
  Enhancement com.primokorn.enhancement 19 0 2016-12-14 18:32:36
  neo2 for AnySoftKeyboard com.anysoftkeyboard.languagepack.neo 6 0 2016-12-14 18:32:34
  Cat Generator com.agateau.catgenerator 1 0 2016-12-14 18:32:34
  neo2 for AnySoftKeyboard com.anysoftkeyboard.languagepack.neo 7 0 2016-12-14 18:32:34
  Little Sir Echo com.cityfreqs.littlesirecho 3 0 2016-12-14 18:32:34
  Scrum Chatter ca.rmen.android.scrumchatter 10600 0 2016-12-14 18:32:33
  TextThing click.dummer.textthing 19 0 2016-12-14 18:32:33
  Port Knocker com.xargsgrep.portknocker 9 0 2016-12-12 08:22:18
  Bewegungsmelder de.arnefeil.bewegungsmelder 140102 0 2016-12-12 08:22:18
  Simple Last.fm Scrobbler com.adam.aslfms 44 0 2016-12-12 08:22:16
  Missed Notifications Reminder com.app.missednotificationsreminder 1801011100 0 2016-12-12 08:22:16
  Fon com.oakley.fon 152 0 2016-12-12 08:22:16
  Nextcloud com.nextcloud.client 10040099 0 2016-12-12 08:22:16
  org.openbmap.unifiedNlpProvider org.openbmap.unifiedNlp 18 0 2016-12-09 01:05:15
  Materialistic io.github.hidroh.materialistic 69 1 2016-12-09 01:05:14
  Materialistic io.github.hidroh.materialistic 67 1 2016-12-04 08:13:52
  Unit Converter Ultimate com.physphil.android.unitconverterultima.. 50100 0 2016-12-04 08:13:51
  ReGeX com.phikal.regex 5 0 2016-12-04 08:13:51
  Footguy com.iazasoft.footguy 6 0 2016-12-01 23:50:35
  Расписание МГКЭ ru.equestriadev.mgke 27 0 2016-11-30 22:05:02
  TTRSS-Reader org.ttrssreader 1911 0 2016-11-30 22:05:01
  Summation net.pejici.summation 3 0 2016-11-30 22:04:59
  Tricky Tripper de.koelle.christian.trickytripper 21 0 2016-11-30 22:04:58
  AudioMeter com.quaap.audiometer 3 0 2016-11-30 22:04:56
  NZ Tides com.palliser.nztides 11 0 2016-11-30 22:04:56
  Read4SpeechExperiments com.prhlt.aemus.Read4SpeechExperiments 18 0 2016-11-30 22:04:56
  NZ Tides com.palliser.nztides 9 0 2016-11-30 22:04:56
  Bluetooth terminal ru.sash0k.bluetooth_terminal 2 0 2016-11-27 14:57:00
  Document Viewer org.sufficientlysecure.viewer 2797 0 2016-11-27 14:56:58
  Document Viewer org.sufficientlysecure.viewer 2796 0 2016-11-27 14:56:56
  Document Viewer org.sufficientlysecure.viewer 2795 0 2016-11-27 14:56:54
  Document Viewer org.sufficientlysecure.viewer 2794 0 2016-11-27 14:56:52
  Document Viewer org.sufficientlysecure.viewer 2793 0 2016-11-27 14:56:50
  AdAway org.adaway 60 8 2016-11-27 14:56:48
  Document Viewer org.sufficientlysecure.viewer 2792 0 2016-11-27 14:56:47
  Dicer org.secuso.privacyfriendlydicer 6 0 2016-11-27 14:56:47
  To-Do List org.secuso.privacyfriendlytodolist 2 0 2016-11-27 14:56:47
  PSIAndroid com.phpsysinfo 910 0 2016-11-27 14:56:46
  Drinks fr.masciulli.drinks 32 0 2016-11-27 14:56:45
  Flashlight com.simplemobiletools.flashlight 21 0 2016-11-27 14:56:45
  Pretty Good Music Player com.smithdtyler.prettygoodmusicplayer 72 0 2016-11-27 14:56:45
  Open Flood com.gunshippenguin.openflood 11 0 2016-11-27 14:56:44
  PReVo uk.co.busydoingnothing.prevo 14 0 2016-11-26 18:18:11
  OCS-NG Agent org.ocsinventoryng.android.agent 24 0 2016-11-26 18:18:10
  Android CUPS Print io.github.benoitduffez.cupsprint 8 0 2016-11-26 18:18:10
  Notes org.secuso.privacyfriendlynotes 1 0 2016-11-26 18:18:10
  33c3 SCR org.ligi.scr 30 1 2016-11-26 18:18:10
  Dice Game org.secuso.privacyfriendlyyahtzeedicer 4 0 2016-11-26 18:18:10
  Torrent Search (by Transdroid) org.transdroid.search 29 0 2016-11-26 18:18:10
  Hacker's Keyboard org.pocketworkstation.pckeyboard 1039001 0 2016-11-26 18:18:10
  Ministro org.kde.necessitas.ministro 14 0 2016-11-26 18:18:10
  Memo Game org.secuso.privacyfriendlymemory 2 0 2016-11-26 18:18:10
  AtmosphereLogger org.tamanegi.atmosphere 5 0 2016-11-26 18:18:10
  Studiportal de.hfu.funfpunktnull 22 1 2016-11-26 18:18:09
  PariDroid fr.ubordeaux.math.paridroid 12 0 2016-11-26 18:18:09
  National Geographic for Muzei de.msal.muzei.nationalgeographic 9 0 2016-11-26 18:18:09
  DictionaryForMIDs de.kugihan.dictionaryformids.hmi_android 126 0 2016-11-26 18:18:09
  Meeting-Cost-Clock de.hoffmannsgimmicks 10 0 2016-11-26 18:18:09
  Alarm Klock com.angrydoughnuts.android.alarmclock 14 0 2016-11-26 18:18:08
  OSRS Helper com.infonuascape.osrshelper 14 0 2016-11-26 18:18:08
  MaterialOS com.materialos.cm.theme 5 0 2016-11-26 18:18:08
  33c3 SCR org.ligi.scr 8 1 2016-11-23 11:01:22
  USB Device Info aws.apps.usbDeviceEnumerator 6 0 2016-11-23 11:01:16
  Shopping List privacyfriendlyshoppinglist.secuso.org.p.. 3 0 2016-11-22 23:48:26
  PixelKnot info.guardianproject.pixelknot 10 0 2016-11-22 23:48:24
  Counter me.tsukanov.counter 17 0 2016-11-22 23:48:24
  To-Do List org.secuso.privacyfriendlytodolist 1 0 2016-11-22 23:48:24
  Read4SpeechExperiments com.prhlt.aemus.Read4SpeechExperiments 17 0 2016-11-22 23:48:23
  Yahtzee Dicer org.secuso.privacyfriendlyyahtzeedicer 3 1 2016-11-21 12:27:19
  OpenMapKit org.redcross.openmapkit 23 0 2016-11-21 12:27:19
  Gear Shift org.sugr.gearshift 88 0 2016-11-21 12:27:19
  Compass Keyboard org.dyndns.fules.ck 20 0 2016-11-21 12:27:17
  ForRunners net.khertan.forrunners 101030 0 2016-11-21 12:26:48
  FilmChecker me.murks.filmchecker 2 0 2016-11-21 12:26:47
  Tanks of Freedom in.p1x.tanks_of_freedom 17 0 2016-11-21 12:26:44
  Termux:Widget com.termux.widget 6 0 2016-11-21 12:26:37
  NetInfo Widget com.ultrafunk.network_info 29 0 2016-11-21 12:26:37
  Torchlight com.secuso.torchlight2 3 1 2016-11-21 12:26:35
  AudioMeter com.quaap.audiometer 1 1 2016-11-21 12:26:35
  Enhancement com.primokorn.enhancement 18 0 2016-11-21 12:26:34
  G2L com.easwareapps.g2l 23 0 2016-11-21 12:26:26
  BARIA com.easwareapps.baria 1 0 2016-11-21 12:26:25
  Android CUPS Print io.github.benoitduffez.cupsprint 6 1 2016-11-18 14:26:58
  Dicer org.secuso.privacyfriendlydicer 5 1 2016-11-18 14:26:58
  pMetro com.utyf.pmetro 110 0 2016-11-18 14:26:52
  pMetro com.utyf.pmetro 111 0 2016-11-18 14:26:52
  Tricky Tripper de.koelle.christian.trickytripper 20 0 2016-11-18 14:26:52
  Simple Last.fm Scrobbler com.adam.aslfms 43 0 2016-11-18 14:26:51
  Capitole du Libre org.toulibre.capitoledulibre 10 0 2016-11-17 13:11:26
  OpenLP org.openlp.android2 6 0 2016-11-17 13:11:24
  Gear Shift org.sugr.gearshift 87 0 2016-11-17 13:11:24
  Shiurim org.opengemara.shiurim 4 0 2016-11-17 13:11:24
  Debatekeeper net.czlee.debatekeeper 23 0 2016-11-17 13:10:42
  WhereAreTheEyes org.daylightingsociety.wherearetheeyes 4 10 2016-11-17 13:10:42
  AntennaPod de.danoeh.antennapod 1060202 0 2016-11-17 13:10:40
  Calculator com.xlythe.calculator.material 93 0 2016-11-17 13:10:40
  Smart Gadget com.sensirion.smartgadget 90 0 2016-11-17 13:10:37
  Calculator com.android2.calculator3 93 0 2016-11-17 13:10:36
  PinDroid com.pindroid 68 0 2016-11-17 13:10:36
  NFCMessageBoard com.briankhuu.nfcmessageboard 16 0 2016-11-17 13:10:35
  PinDroid com.pindroid 67 0 2016-11-15 11:30:24
  OneTimePad com.onest8.onetimepad 201 0 2016-11-15 11:30:23
  CMLog org.polaric.cyanogenmodchangelog 62 0 2016-11-14 20:03:18
  ZANavi com.zoffcc.applications.zanavi 254 0 2016-11-14 20:03:16
  NetInfo Widget com.ultrafunk.network_info 28 0 2016-11-14 20:03:14
  Yahtzee Dicer org.secuso.privacyfriendlyyahtzeedicer 2 0 2016-11-13 18:41:32
  Weather org.secuso.privacyfriendlyweather 2 0 2016-11-13 18:41:32
  MagiaDNI jpf.android.magiadni 9 0 2016-11-13 18:41:06
  Voice Recorder Plugin eu.siacs.conversations.voicerecorder 3 0 2016-11-13 18:41:04
  Mercury-SSH it.skarafaz.mercury 7 0 2016-11-13 18:41:04
  Storage & USB com.enrico.filemanager 5 0 2016-11-13 18:40:58
  CMLog org.polaric.cyanogenmodchangelog 61 0 2016-11-11 12:26:02
  PIN Mnemonic org.secuso.privacyfriendlypin 6 0 2016-11-11 12:26:01
  BoogDroid me.johnmh.boogdroid 14 0 2016-11-11 12:26:00
  OneTimePad com.onest8.onetimepad 200 0 2016-11-11 12:25:53
  QR Scanner com.secuso.privacyFriendlyCodeScanner 7 0 2016-11-11 12:25:53
  getChromium com.anddevw.getchromium 20161103 0 2016-11-10 13:32:14
  NFCMessageBoard com.briankhuu.nfcmessageboard 15 0 2016-11-10 13:32:14
  Weather org.secuso.privacyfriendlyweather 1 0 2016-11-09 16:19:53
  Sudoku org.secuso.privacyfriendlysudoku 3 0 2016-11-08 16:02:12
  FasterGPS org.fastergps 14 0 2016-11-08 16:02:11
  PhotoBackup fr.s13d.photobackup 33 0 2016-11-08 16:02:11
  NTPSync org.ntpsync 12 0 2016-11-08 16:02:11
  Flite TTS Engine edu.cmu.cs.speech.tts.flite 4 0 2016-11-08 16:02:08
  NFCMessageBoard com.briankhuu.nfcmessageboard 14 0 2016-11-08 16:01:49
  A2DP Volume a2dp.Vol 134 0 2016-11-08 16:01:48
  BLExplorer org.ligi.blexplorer 12 0 2016-11-07 16:53:44
  freeminer org.freeminer.freeminer 121 0 2016-11-07 16:53:41
  MagiaDNI jpf.android.magiadni 8 0 2016-11-07 16:53:39
  Comics Reader net.kervala.comicsreader 28 0 2016-11-07 16:53:39
  AwesomeWallpaper com.wolas.awesomewallpaper 2 0 2016-11-07 16:53:29
  pMetro com.utyf.pmetro 112 0 2016-11-07 16:53:29
  Reminders com.lostrealm.lembretes 93 0 2016-11-07 16:53:18
  SMS Ping com.itds.sms.ping 2 0 2016-11-07 16:53:18
  KeePassDroid com.android.keepass 154 0 2016-11-07 16:53:17
  PIN Mnemonic org.secuso.privacyfriendlypin 5 0 2016-11-04 21:35:09
  Location Share ca.cmetcalfe.locationshare 1 0 2016-11-04 21:35:04
  DroidFish org.petero.droidfish 71 0 2016-11-03 11:26:14
  Glucosio org.glucosio.android 38 0 2016-11-03 11:26:11
  Calendar Import-Export org.sufficientlysecure.ical 55 0 2016-11-02 10:55:42
  Birthday Adapter org.birthdayadapter 19 0 2016-11-02 10:55:42
  Timber naman14.timber 14 0 2016-11-02 10:55:41
  Zensuren com.app.Zensuren 121 0 2016-11-02 10:55:36
  Timber naman14.timber 13 0 2016-11-01 13:00:41
  MicroPinner de.dotwee.micropinner 26 0 2016-11-01 13:00:39
  Content Provider Helper de.k3b.android.contentproviderhelper 3 0 2016-11-01 13:00:39
  ReGeX com.phikal.regex 4 0 2016-11-01 13:00:36
  Open Flood com.gunshippenguin.openflood 10 0 2016-11-01 13:00:32
  ShareToBrowser aq.com.sharetobrowser 1 0 2016-11-01 13:00:31
  React io.github.engsergiu.react 4 0 2016-10-31 16:57:43
  Applications Info com.majeur.applicationsinfo 7 0 2016-10-31 16:57:30
  mTPMS org.thecongers.mtpms 4 0 2016-10-28 14:55:56
  Document Viewer org.sufficientlysecure.viewer 2787 0 2016-10-28 14:55:52
  Document Viewer org.sufficientlysecure.viewer 2786 0 2016-10-28 14:55:48
  Document Viewer org.sufficientlysecure.viewer 2785 0 2016-10-28 14:55:43
  Document Viewer org.sufficientlysecure.viewer 2784 0 2016-10-28 14:55:39
  Document Viewer org.sufficientlysecure.viewer 2783 0 2016-10-28 14:55:34
  Document Viewer org.sufficientlysecure.viewer 2782 0 2016-10-28 14:55:30
  Document Viewer org.sufficientlysecure.viewer 2781 0 2016-10-28 14:55:26
  Material Tea Timer org.ligi.materialteatimer 12 0 2016-10-28 14:55:24
  ForRunners net.khertan.forrunners 101020 0 2016-10-28 14:55:20
  React io.github.engsergiu.react 3 0 2016-10-28 14:55:18
  Polar Clock eu.polarclock 5 0 2016-10-28 14:55:16
  DO Swimmer com.yassirh.digitalocean 30 0 2016-10-28 14:55:15
  Termux:Widget com.termux.widget 5 0 2016-10-28 14:55:14
  Unit Converter Ultimate com.physphil.android.unitconverterultima.. 40200 0 2016-10-28 14:55:13
  LibreOffice Viewer org.documentfoundation.libreoffice 11 0 2016-10-27 11:51:24
  LibreOffice Viewer org.documentfoundation.libreoffice 10 0 2016-10-27 11:51:01
  ForRunners net.khertan.forrunners 101011 0 2016-10-27 11:50:53
  World Weather com.haringeymobile.ukweather 24 0 2016-10-27 11:50:48
  Toffeed me.jakelane.wrapperforfacebook 14 0 2016-10-25 10:39:54
  Polar Clock eu.polarclock 3 0 2016-10-25 10:39:52
  SlimSocial for Twitter it.rignanese.leo.slimtwitter 4 0 2016-10-25 10:39:52
  React io.github.engsergiu.react 1 0 2016-10-25 10:39:51
  Polar Clock eu.polarclock 4 0 2016-10-25 10:39:51
  Vuze Remote com.vuze.android.remote 78 0 2016-10-25 10:39:47
  Bitcoin com.btcontract.wallet 45 0 2016-10-25 10:39:36
  Metronome com.arnaud.metronome 2 0 2016-10-25 10:39:36
  Offline Calendar org.sufficientlysecure.localcalendar 9 0 2016-10-20 12:38:46
  Melodeon org.billthefarmer.melodeon 108 0 2016-10-20 12:38:42
  PhotoBackup fr.s13d.photobackup 30 0 2016-10-20 12:38:41
  Sokoban com.mobilepearls.sokoban 14 0 2016-10-20 12:38:38
  MHGen Database com.ghstudios.android.mhgendatabase 6 0 2016-10-20 12:38:31
  Fun Phone Puppet click.dummer.funphonepuppet 12 0 2016-10-20 12:38:30
  K-9/p≡p pep.android.k9 13 0 2016-10-18 10:56:14
  Obsqr trikita.obsqr 16 0 2016-10-18 10:56:13
  Debatekeeper net.czlee.debatekeeper 22 0 2016-10-18 10:56:08
  Vibora-Feed de.vibora.viborafeed 25 0 2016-10-18 10:56:08
  Drinks fr.masciulli.drinks 29 0 2016-10-18 10:56:08
  DuckDuckGo com.duckduckgo.mobile.android 76 0 2016-10-18 10:56:06
  Tux Paint org.tuxpaint 7 0 2016-10-17 11:37:44
  Drinks fr.masciulli.drinks 28 0 2016-10-17 11:37:42
  Acastus me.dbarnett.acastus 11 0 2016-10-17 11:37:42
  Satoshi Proof org.ligi.satoshiproof 104 0 2016-10-17 11:37:42
  LDTO Companion it.linuxday.torino 1 0 2016-10-17 11:37:41
  Ministocks nitezh.ministock 68 0 2016-10-17 11:37:41
  Always On AMOLED Plugin tomer.com.alwaysonamoledplugin 3 0 2016-10-15 12:33:00
  Meditation Assistant sh.ftp.rocketninelabs.meditationassistan.. 140 0 2016-10-15 12:33:00
  Sipdroid org.sipdroid.sipua 104 0 2016-10-15 12:32:59
  Privacy Week Schedule net.wireloss.android.fahrplan.pw16 5 0 2016-10-15 12:32:58
  My Position net.mypapit.mobile.myposition 11 0 2016-10-15 12:32:58
  Notepad com.tomaszmarzeion.notepad 7 0 2016-10-15 12:32:58
  KanaDrill com.jorgecastillo.kanadrill 33 0 2016-10-15 12:32:55
  RF Analyzer com.mantz_it.rfanalyzer 1303 0 2016-10-14 10:52:23
  RunnerUp org.runnerup 14000054 0 2016-10-13 23:42:50
  Accordion org.billthefarmer.accordion 110 0 2016-10-13 23:42:48
  Mach3Pendant gr.ratmole.android.Mach3Pendant 14 0 2016-10-13 23:42:47
  Sound Recorder com.danielkim.soundrecorder 8 0 2016-10-13 23:42:43
  Man Man com.adonai.manman 162 0 2016-10-13 23:42:43
  Bad Pixels tk.al54.dev.badpixels 4 0 2016-10-11 21:06:48
  Puff sun.bob.leela 2 0 2016-10-11 21:06:48
  WiFi Walkie Talkie org.jsl.wfwt 14 0 2016-10-11 21:06:08
  LeafPic org.horaapps.leafpic 13 0 2016-10-11 21:06:07
  MIFARE Classic Tool de.syss.MifareClassicTool 39 0 2016-10-11 21:06:03
  Sigfood de.sigfood 26 0 2016-10-11 21:06:02
  Dialer for Pebble com.matejdro.pebbledialer 39 3 2016-10-11 21:05:56
  KanaDrill com.jorgecastillo.kanadrill 32 0 2016-10-11 21:05:55
  Analytical Translator com.example.root.analyticaltranslator 6 0 2016-10-11 21:05:54
  The Knights of Alentejo br.odb.knights 5 0 2016-10-11 21:05:45
  Classic ca.farrelltonsolar.classic 246 0 2016-10-11 21:05:45
  Acrylic Paint anupam.acrylic 15 0 2016-10-11 21:05:44
  Calendar Trigger uk.co.yahoo.p1rpp.calendartrigger 1 0 2016-10-08 18:14:10
  Melodeon org.billthefarmer.melodeon 107 0 2016-10-08 18:14:08
  KanaDrill com.jorgecastillo.kanadrill 31 0 2016-10-08 18:13:34
  DuckDuckGo com.duckduckgo.mobile.android 75 0 2016-10-08 18:13:32
  CamCov ryey.camcov 8 0 2016-10-07 19:40:20
  Bulkshare 2 me.alexghr.bulkshare.android.app2 3 0 2016-10-07 19:40:18
  MinCal Widget cat.mvmike.minimalcalendarwidget 5 0 2016-10-07 19:40:13
  /r/Android App store subreddit.android.appstore 6000 0 2016-10-06 17:59:34
  Guess ru.zxalexis.ugaday 15 0 2016-10-06 17:59:34
  Guess ru.zxalexis.ugaday 14 0 2016-10-06 17:59:33
  Gear Shift org.sugr.gearshift 85 0 2016-10-06 17:59:33
  Clover org.floens.chan 56 0 2016-10-06 17:59:31
  VoIP.ms SMS net.kourlas.voipms_sms 113 0 2016-10-06 17:59:30
  VoIP.ms SMS net.kourlas.voipms_sms 111 0 2016-10-06 17:59:30
  Minesweeper csd.qtproject.minesweeper 1 0 2016-10-06 17:59:27
  Dialer for Pebble com.matejdro.pebbledialer 38 0 2016-10-06 17:59:26
  /system/app mover de.j4velin.systemappmover 172 0 2016-10-05 18:11:46
  Debatekeeper net.czlee.debatekeeper 21 0 2016-10-05 18:11:46
  Wi-Fi Privacy Police be.uhasselt.privacypolice 13 0 2016-10-05 18:11:44
  Accordion org.billthefarmer.accordion 109 0 2016-10-04 17:39:42
  Fortunes org.legtux.m_316k.fortune 2 0 2016-10-04 17:39:42
  React io.github.baiatbun.react 1 0 2016-10-04 17:39:15
  Transports Rennes fr.ybo.transportsrennes 413 0 2016-10-04 17:39:13
  Transports Bordeaux fr.ybo.transportsbordeaux 325 0 2016-10-04 17:39:10
  HW-Manager de.nico.ha_manager 26 0 2016-10-04 17:39:09
  XSkat de.xskat 14 0 2016-10-04 17:39:09
  Prepay Credit damo.three.ie 19 0 2016-10-04 17:39:08
  pOT-Droid com.mde.potdroid 74 0 2016-10-04 17:38:58
  pOT-Droid com.mde.potdroid 72 0 2016-10-04 17:38:57
  Dialer for Pebble com.matejdro.pebbledialer 37 0 2016-10-04 17:38:57
  IITC Mobile com.cradle.iitc_mobile 104 0 2016-10-04 17:38:56
  Always On AMOLED com.tomer.alwayson 213 0 2016-10-02 17:54:06
  Reservator com.futurice.android.reservator 17 0 2016-10-02 17:54:04
  JumpGo com.jtechme.jumpgo 113 0 2016-10-02 17:54:04
  Hubble Gallery com.derek_s.hubble_gallery 20 0 2016-10-01 17:05:52
  LeafPic org.horaapps.leafpic 12 0 2016-09-29 12:50:44
  WiFi Automatic de.j4velin.wifiAutoOff 173 0 2016-09-29 12:50:42
  My Position net.mypapit.mobile.myposition 10 0 2016-09-29 12:50:42
  Meditation Assistant sh.ftp.rocketninelabs.meditationassistan.. 139 0 2016-09-28 12:17:31
  Ensichat com.nutomic.ensichat 17 0 2016-09-28 12:17:30
  /r/Android App store subreddit.android.appstore 3100 0 2016-09-27 20:01:40
  Meditation Assistant sh.ftp.rocketninelabs.meditationassistan.. 138 0 2016-09-27 20:01:39
  Etheric Synthesizer net.sf.ethersynth 100 0 2016-09-27 20:01:36
  YouTube Cacher io.gitlab.mudassir.youtubecacher 1 0 20